Bel Air, Maryland - USA |
Today's Data File |
8/31/26
Time Wind Dir Wind Spd Wind Gust Hum In Humidity Temp In Temp Raw Barom Wind Chill Press Alt Cloud Base Dens Alt Temp Out R DailyRain 24HrRain RainRate
� mph mph % % �F �F in �F ft ft ft �F/hr in in in/hr
12:00am 203 0 0 44 97 72.6 74.9 29.51 74.9 381 226 1514 -1.05 0.00 0.00 0.000
12:02am 203 0 0 44 97 72.4 74.8 29.51 74.8 383 226 1510 -1.10 0.00 0.00 0.000
12:03am 203 0 0 44 97 72.4 74.8 29.51 74.8 384 226 1511 -1.10 0.00 0.00 0.000
12:04am 203 0 0 44 97 72.4 74.8 29.51 74.8 384 226 1511 -1.08 0.00 0.00 0.000
12:05am 203 0 0 44 97 72.4 74.7 29.51 74.7 384 226 1504 -1.16 0.00 0.00 0.000
12:06am 203 0 0 44 97 72.4 74.7 29.51 74.7 383 226 1503 -1.14 0.00 0.00 0.000
12:07am 203 0 0 44 97 72.4 74.7 29.51 74.7 384 226 1504 -1.13 0.00 0.00 0.000
12:08am 203 0 0 44 97 72.4 74.7 29.51 74.7 383 226 1503 -1.11 0.00 0.00 0.000
12:09am 203 0 0 44 97 72.4 74.7 29.51 74.7 383 226 1503 -1.09 0.00 0.00 0.000
12:10am 203 0 0 44 97 72.4 74.6 29.51 74.6 383 226 1497 -1.17 0.00 0.00 0.000
12:11am 203 0 0 44 97 72.4 74.6 29.51 74.6 383 226 1497 -1.15 0.00 0.00 0.000
12:12am 203 0 0 44 97 72.4 74.7 29.51 74.7 384 226 1504 -1.03 0.00 0.00 0.000
12:13am 203 0 0 46 97 72.4 74.6 29.51 74.6 384 226 1498 -1.12 0.00 0.00 0.000
12:14am 203 0 0 44 97 72.4 74.6 29.51 74.6 384 226 1498 -1.10 0.00 0.00 0.000
12:15am 203 0 0 44 97 72.4 74.6 29.51 74.6 384 226 1499 -1.08 0.00 0.00 0.000
12:16am 203 0 0 44 97 72.4 74.6 29.51 74.6 384 226 1498 -1.06 0.00 0.00 0.000
12:17am 203 0 0 44 97 72.4 74.6 29.51 74.6 383 226 1497 -1.04 0.00 0.00 0.000
12:18am 203 0 0 44 97 72.4 74.6 29.51 74.6 381 226 1495 -1.03 0.00 0.00 0.000
12:19am 203 0 0 44 97 72.4 74.5 29.51 74.5 382 226 1489 -1.11 0.00 0.00 0.000
12:20am 203 0 0 44 97 72.4 74.6 29.51 74.6 381 226 1495 -0.99 0.00 0.00 0.000
12:21am 203 0 0 44 97 72.4 74.6 29.51 74.6 380 226 1494 -0.97 0.00 0.00 0.000
12:22am 203 0 0 44 97 72.4 74.6 29.51 74.6 381 226 1495 -0.96 0.00 0.00 0.000
12:23am 203 0 0 44 97 72.4 74.6 29.51 74.6 381 226 1495 -0.94 0.00 0.00 0.000
12:24am 203 0 0 44 97 72.6 74.6 29.51 74.6 381 226 1495 -0.93 0.00 0.00 0.000
12:25am 203 0 0 44 97 72.6 74.7 29.51 74.7 382 226 1502 -0.81 0.00 0.00 0.000
12:26am 203 0 0 44 97 72.6 74.6 29.51 74.6 382 226 1496 -0.90 0.00 0.00 0.000
12:27am 203 0 0 44 97 72.6 74.6 29.51 74.6 382 226 1496 -0.88 0.00 0.00 0.000
12:28am 203 0 0 44 97 72.6 74.7 29.51 74.7 382 226 1502 -0.77 0.00 0.00 0.000
12:29am 203 0 0 44 97 72.6 74.6 29.51 74.6 384 226 1498 -0.85 0.00 0.00 0.000
12:30am 203 0 0 44 97 72.6 74.6 29.51 74.6 384 226 1498 -0.84 0.00 0.00 0.000
12:31am 203 0 0 44 97 72.6 74.6 29.51 74.6 384 226 1499 -0.83 0.00 0.00 0.000
12:32am 203 0 0 46 97 72.6 74.6 29.51 74.6 384 226 1498 -0.81 0.00 0.00 0.000
12:33am 203 0 0 44 97 72.6 74.6 29.51 74.6 384 226 1498 -0.80 0.00 0.00 0.000
12:34am 203 0 0 44 97 72.6 74.6 29.51 74.6 384 226 1498 -0.79 0.00 0.00 0.000
12:35am 203 0 0 44 97 72.6 74.5 29.51 74.5 383 226 1491 -0.87 0.00 0.00 0.000
12:36am 203 0 0 44 97 72.6 74.6 29.51 74.6 381 226 1495 -0.76 0.00 0.00 0.000
12:37am 203 0 0 44 97 72.6 74.5 29.51 74.5 380 226 1487 -0.84 0.00 0.00 0.000
12:38am 203 0 0 44 97 72.6 74.5 29.51 74.5 379 226 1486 -0.83 0.00 0.00 0.000
12:39am 203 0 0 44 97 72.6 74.5 29.51 74.5 379 226 1486 -0.82 0.00 0.00 0.000
12:40am 203 0 0 44 97 72.6 74.5 29.51 74.5 379 226 1486 -0.80 0.00 0.00 0.000
12:41am 203 0 0 44 97 72.4 74.5 29.51 74.5 378 226 1485 -0.79 0.00 0.00 0.000
12:42am 203 0 0 44 97 72.4 74.5 29.51 74.5 378 226 1485 -0.78 0.00 0.00 0.000
12:43am 203 0 0 44 97 72.4 74.4 29.51 74.4 378 226 1479 -0.86 0.00 0.00 0.000
12:44am 203 0 0 44 97 72.4 74.4 29.51 74.4 379 226 1480 -0.85 0.00 0.00 0.000
12:45am 203 0 0 44 97 72.4 74.4 29.51 74.4 379 226 1480 -0.83 0.00 0.00 0.000
12:46am 203 0 0 44 97 72.4 74.4 29.51 74.4 379 226 1480 -0.82 0.00 0.00 0.000
12:47am 203 0 0 44 97 72.4 74.4 29.51 74.4 379 226 1480 -0.81 0.00 0.00 0.000
12:48am 203 0 0 44 97 72.4 74.4 29.51 74.4 379 226 1480 -0.79 0.00 0.00 0.000
12:49am 141 0 0 44 97 72.4 74.4 29.51 74.4 379 226 1480 -0.78 0.00 0.00 0.000
12:50am 141 0 0 44 97 72.4 74.4 29.51 74.4 378 226 1479 -0.77 0.00 0.00 0.000
12:51am 111 0 0 44 97 72.4 74.4 29.51 74.4 378 226 1479 -0.75 0.00 0.00 0.000
12:52am 111 0 0 44 97 72.4 74.4 29.51 74.4 378 226 1479 -0.74 0.00 0.00 0.000
12:53am 111 0 0 44 97 72.4 74.4 29.51 74.4 378 226 1479 -0.73 0.00 0.00 0.000
12:54am 111 0 0 44 98 72.4 74.3 29.51 74.3 378 149 1472 -0.82 0.00 0.00 0.000
12:55am 111 0 0 44 97 72.4 74.3 29.51 74.3 378 226 1472 -0.80 0.00 0.00 0.000
12:56am 111 0 0 44 98 72.4 74.3 29.51 74.3 378 149 1472 -0.79 0.00 0.00 0.000
12:57am 111 0 0 44 98 72.4 74.3 29.51 74.3 378 149 1472 -0.78 0.00 0.00 0.000
12:58am 111 0 0 44 97 72.4 74.4 29.51 74.4 378 226 1479 -0.66 0.00 0.00 0.000
12:59am 105 0 0 44 98 72.4 74.3 29.51 74.3 377 149 1471 -0.75 0.00 0.00 0.000
1:00am 105 0 0 44 97 72.4 74.3 29.51 74.3 378 226 1472 -0.74 0.00 0.00 0.000
1:01am 105 0 0 44 97 72.4 74.3 29.51 74.3 378 226 1472 -0.73 0.00 0.00 0.000
1:02am 105 0 0 44 97 72.4 74.3 29.51 74.3 378 226 1472 -0.71 0.00 0.00 0.000
1:03am 105 0 0 44 98 72.4 74.3 29.51 74.3 378 149 1472 -0.70 0.00 0.00 0.000
1:04am 105 0 0 44 98 72.4 74.3 29.51 74.3 378 149 1472 -0.69 0.00 0.00 0.000
1:05am 105 0 0 44 98 72.4 74.2 29.51 74.2 379 149 1467 -0.78 0.00 0.00 0.000
1:06am 100 0 3 44 98 72.4 74.2 29.51 74.2 379 149 1467 -0.77 0.00 0.00 0.000
1:07am 100 0 3 44 98 72.4 74.3 29.51 74.3 379 149 1473 -0.65 0.00 0.00 0.000
1:08am 100 1 3 44 98 72.4 74.2 29.51 74.2 379 149 1467 -0.74 0.00 0.00 0.000
1:09am 100 0 3 44 98 72.6 74.2 29.51 74.2 379 149 1467 -0.73 0.00 0.00 0.000
1:10am 100 0 3 44 98 72.6 74.2 29.51 74.2 378 149 1466 -0.72 0.00 0.00 0.000
1:11am 100 1 1 44 98 72.6 74.3 29.51 74.3 378 149 1472 -0.61 0.00 0.00 0.000
1:12am 100 1 1 44 98 72.6 74.2 29.51 74.2 378 149 1466 -0.70 0.00 0.00 0.000
1:13am 100 0 1 44 98 72.6 74.2 29.51 74.2 378 149 1466 -0.68 0.00 0.00 0.000
1:14am 100 0 1 44 98 72.6 74.2 29.51 74.2 378 149 1466 -0.67 0.00 0.00 0.000
1:15am 100 0 1 44 98 72.6 74.2 29.51 74.2 378 149 1466 -0.66 0.00 0.00 0.000
1:16am 100 0 0 44 98 72.6 74.1 29.51 74.1 378 149 1460 -0.75 0.00 0.00 0.000
1:17am 100 0 0 44 98 72.6 74.1 29.51 74.1 378 149 1460 -0.74 0.00 0.00 0.000
1:18am 100 0 0 44 98 72.4 74.1 29.51 74.1 378 149 1460 -0.73 0.00 0.00 0.000
1:19am 100 0 0 44 98 72.4 74.1 29.51 74.1 378 149 1460 -0.72 0.00 0.00 0.000
1:20am 100 0 0 44 98 72.4 74.1 29.51 74.1 378 149 1460 -0.70 0.00 0.00 0.000
1:21am 100 0 0 44 98 72.4 74.1 29.51 74.1 377 149 1459 -0.69 0.00 0.00 0.000
1:22am 100 0 0 44 98 72.4 74.0 29.51 74.0 377 149 1452 -0.78 0.00 0.00 0.000
1:23am 100 0 0 44 98 72.4 74.0 29.51 74.0 377 149 1452 -0.77 0.00 0.00 0.000
1:24am 100 0 0 44 98 72.4 74.0 29.51 74.0 377 149 1452 -0.76 0.00 0.00 0.000
1:25am 100 0 0 44 98 72.4 74.1 29.51 74.1 377 149 1459 -0.64 0.00 0.00 0.000
1:26am 100 0 0 44 98 72.4 74.0 29.51 74.0 377 149 1452 -0.73 0.00 0.00 0.000
1:27am 100 0 0 44 98 72.4 74.0 29.51 74.0 377 149 1452 -0.72 0.00 0.00 0.000
1:28am 100 0 0 44 98 72.4 74.1 29.51 74.1 378 149 1460 -0.61 0.00 0.00 0.000
1:29am 100 0 0 44 98 72.4 74.0 29.51 74.0 378 149 1453 -0.70 0.00 0.00 0.000
1:30am 100 0 0 44 98 72.4 74.0 29.51 74.0 378 149 1453 -0.69 0.00 0.00 0.000
1:31am 100 0 0 44 98 72.4 74.0 29.51 74.0 379 149 1454 -0.68 0.00 0.00 0.000
1:32am 100 0 0 44 98 72.4 74.0 29.51 74.0 379 149 1454 -0.67 0.00 0.00 0.000
1:33am 100 0 0 44 98 72.4 74.0 29.51 74.0 379 149 1454 -0.65 0.00 0.00 0.000
1:34am 100 0 0 44 98 72.4 74.0 29.51 74.0 378 149 1453 -0.64 0.00 0.00 0.000
1:35am 100 1 1 44 98 72.4 74.0 29.51 74.0 378 149 1453 -0.63 0.00 0.00 0.000
1:36am 100 0 1 44 98 72.4 74.0 29.51 74.0 378 149 1453 -0.62 0.00 0.00 0.000
1:37am 100 0 1 44 98 72.4 74.0 29.51 74.0 378 149 1453 -0.61 0.00 0.00 0.000
1:38am 100 0 1 44 98 72.4 74.0 29.51 74.0 379 149 1454 -0.60 0.00 0.00 0.000
1:39am 100 0 1 44 98 72.4 73.9 29.51 73.9 379 149 1448 -0.69 0.00 0.00 0.000
1:40am 100 1 1 44 98 72.4 73.9 29.51 73.9 378 149 1447 -0.68 0.00 0.00 0.000
1:41am 100 0 1 44 98 72.4 73.9 29.51 73.9 378 149 1447 -0.67 0.00 0.00 0.000
1:42am 100 0 1 44 98 72.4 74.0 29.51 74.0 379 149 1454 -0.56 0.00 0.00 0.000
1:43am 100 0 1 44 98 72.4 74.0 29.51 74.0 378 149 1453 -0.54 0.00 0.00 0.000
1:44am 100 0 1 44 98 72.4 74.0 29.51 74.0 379 149 1454 -0.53 0.00 0.00 0.000
1:45am 100 0 1 44 98 72.4 74.0 29.51 74.0 379 149 1454 -0.53 0.00 0.00 0.000
1:46am 100 0 0 44 98 72.4 73.9 29.51 73.9 379 149 1448 -0.62 0.00 0.00 0.000
1:47am 100 0 0 44 98 72.4 73.9 29.51 73.9 379 149 1448 -0.61 0.00 0.00 0.000
1:48am 100 0 0 44 98 72.4 73.9 29.51 73.9 379 149 1448 -0.60 0.00 0.00 0.000
1:49am 100 0 0 44 98 72.6 73.9 29.51 73.9 379 149 1448 -0.59 0.00 0.00 0.000
1:50am 100 0 0 44 98 72.6 73.9 29.51 73.9 379 149 1448 -0.58 0.00 0.00 0.000
1:51am 100 0 0 44 98 72.6 73.8 29.51 73.8 379 149 1442 -0.67 0.00 0.00 0.000
1:52am 100 0 0 44 98 72.6 73.9 29.51 73.9 379 149 1448 -0.56 0.00 0.00 0.000
1:53am 100 0 0 44 98 72.6 73.8 29.51 73.8 379 149 1442 -0.64 0.00 0.00 0.000
1:54am 100 0 0 44 98 72.6 73.8 29.51 73.8 379 149 1442 -0.63 0.00 0.00 0.000
1:55am 100 0 0 44 98 72.6 73.8 29.51 73.8 379 149 1442 -0.62 0.00 0.00 0.000
1:56am 100 0 0 44 98 72.6 73.8 29.51 73.8 380 149 1443 -0.61 0.00 0.00 0.000
1:57am 100 0 0 44 98 72.6 73.8 29.51 73.8 380 149 1443 -0.60 0.00 0.00 0.000
1:58am 100 0 0 44 98 72.6 73.8 29.51 73.8 381 149 1444 -0.59 0.00 0.00 0.000
1:59am 100 0 0 44 98 72.6 73.8 29.51 73.8 381 149 1444 -0.58 0.00 0.00 0.000
2:00am 100 0 0 44 98 72.4 73.8 29.51 73.8 382 149 1445 -0.57 0.00 0.00 0.000
2:01am 100 0 0 44 98 72.6 73.8 29.51 73.8 382 149 1445 -0.56 0.00 0.00 0.000
2:02am 100 0 0 44 98 72.4 73.8 29.51 73.8 382 149 1445 -0.55 0.00 0.00 0.000
2:03am 100 0 0 44 98 72.4 73.8 29.51 73.8 383 149 1446 -0.55 0.00 0.00 0.000
2:04am 100 0 0 44 98 72.4 73.8 29.51 73.8 383 149 1446 -0.54 0.00 0.00 0.000
2:05am 100 0 0 44 98 72.4 73.8 29.51 73.8 384 149 1447 -0.53 0.00 0.00 0.000
2:06am 100 0 0 44 98 72.4 73.8 29.51 73.8 384 149 1447 -0.52 0.00 0.00 0.000
2:07am 100 0 0 44 98 72.4 73.7 29.51 73.7 384 149 1441 -0.61 0.00 0.00 0.000
2:08am 100 0 0 44 98 72.4 73.7 29.51 73.7 385 149 1443 -0.60 0.00 0.00 0.000
2:09am 100 0 0 44 98 72.4 73.8 29.51 73.8 384 149 1449 -0.49 0.00 0.00 0.000
2:10am 100 0 0 44 98 72.4 73.7 29.51 73.7 385 149 1443 -0.58 0.00 0.00 0.000
2:11am 100 0 0 44 98 72.4 73.7 29.50 73.7 386 149 1444 -0.57 0.00 0.00 0.000
2:12am 100 0 0 44 98 72.4 73.7 29.50 73.7 386 149 1444 -0.56 0.00 0.00 0.000
2:13am 100 0 0 44 98 72.4 73.7 29.50 73.7 388 149 1447 -0.55 0.00 0.00 0.000
2:14am 100 0 0 44 98 72.4 73.6 29.50 73.6 389 149 1441 -0.64 0.00 0.00 0.000
2:15am 100 0 0 44 98 72.4 73.6 29.50 73.6 389 149 1441 -0.63 0.00 0.00 0.000
2:16am 100 0 0 44 98 72.4 73.6 29.50 73.6 388 149 1440 -0.62 0.00 0.00 0.000
2:17am 100 0 0 44 98 72.4 73.6 29.50 73.6 389 149 1441 -0.61 0.00 0.00 0.000
2:18am 100 0 0 44 98 72.4 73.6 29.50 73.6 389 149 1441 -0.60 0.00 0.00 0.000
2:19am 100 0 0 44 98 72.4 73.6 29.50 73.6 390 149 1443 -0.59 0.00 0.00 0.000
2:20am 100 0 0 44 98 72.4 73.6 29.50 73.6 390 149 1443 -0.58 0.00 0.00 0.000
2:21am 100 0 0 44 98 72.4 73.5 29.50 73.5 390 149 1436 -0.67 0.00 0.00 0.000
2:22am 100 0 0 44 98 72.4 73.5 29.50 73.5 390 149 1436 -0.66 0.00 0.00 0.000
2:23am 100 0 0 44 98 72.4 73.5 29.50 73.5 390 149 1436 -0.65 0.00 0.00 0.000
2:24am 100 0 0 44 98 72.4 73.5 29.50 73.5 391 149 1437 -0.64 0.00 0.00 0.000
2:25am 100 0 0 44 98 72.6 73.5 29.50 73.5 391 149 1437 -0.63 0.00 0.00 0.000
2:26am 100 0 0 44 98 72.6 73.5 29.50 73.5 391 149 1437 -0.61 0.00 0.00 0.000
2:27am 100 0 0 44 98 72.6 73.5 29.50 73.5 392 149 1439 -0.60 0.00 0.00 0.000
2:28am 100 0 0 44 98 72.6 73.4 29.50 73.4 392 149 1432 -0.69 0.00 0.00 0.000
2:29am 100 0 0 44 98 72.6 73.4 29.50 73.4 392 149 1432 -0.68 0.00 0.00 0.000
2:30am 100 0 0 45 98 72.6 73.4 29.50 73.4 392 149 1432 -0.67 0.00 0.00 0.000
2:31am 100 0 0 44 98 72.6 73.4 29.50 73.4 392 149 1432 -0.66 0.00 0.00 0.000
2:32am 100 0 0 44 98 72.6 73.4 29.50 73.4 393 149 1433 -0.65 0.00 0.00 0.000
2:33am 100 0 0 44 99 72.6 73.3 29.50 73.3 393 73 1427 -0.74 0.00 0.00 0.000
2:34am 100 0 0 44 99 72.6 73.3 29.50 73.3 393 73 1427 -0.72 0.00 0.00 0.000
2:35am 100 0 0 44 99 72.6 73.3 29.50 73.3 393 73 1427 -0.71 0.00 0.00 0.000
2:36am 100 0 0 44 99 72.6 73.3 29.50 73.3 393 73 1427 -0.70 0.00 0.00 0.000
2:37am 100 0 0 44 99 72.6 73.3 29.50 73.3 393 73 1427 -0.69 0.00 0.00 0.000
2:38am 100 0 0 44 99 72.6 73.3 29.50 73.3 393 73 1427 -0.68 0.00 0.00 0.000
2:39am 100 0 0 44 99 72.6 73.3 29.50 73.3 393 73 1427 -0.67 0.00 0.00 0.000
2:40am 100 0 0 44 99 72.6 73.2 29.50 73.2 393 73 1421 -0.75 0.00 0.00 0.000
2:41am 100 0 0 44 99 72.6 73.2 29.50 73.2 393 73 1421 -0.74 0.00 0.00 0.000
2:42am 100 0 0 44 99 72.6 73.2 29.50 73.2 393 73 1421 -0.73 0.00 0.00 0.000
2:43am 100 0 0 44 99 72.6 73.2 29.50 73.2 393 73 1421 -0.72 0.00 0.00 0.000
2:44am 100 0 0 44 99 72.6 73.2 29.50 73.2 393 73 1421 -0.71 0.00 0.00 0.000
2:45am 100 0 0 44 99 72.4 73.2 29.50 73.2 393 73 1421 -0.69 0.00 0.00 0.000
2:46am 100 0 0 44 99 72.4 73.1 29.50 73.1 393 73 1414 -0.78 0.00 0.00 0.000
2:47am 100 0 0 44 99 72.4 73.1 29.50 73.1 393 73 1414 -0.77 0.00 0.00 0.000
2:48am 100 0 0 44 99 72.4 73.2 29.50 73.2 393 73 1421 -0.66 0.00 0.00 0.000
2:49am 100 0 0 44 99 72.4 73.1 29.50 73.1 393 73 1414 -0.74 0.00 0.00 0.000
2:50am 100 0 0 44 99 72.4 73.1 29.50 73.1 393 73 1414 -0.73 0.00 0.00 0.000
2:51am 100 0 0 44 99 72.4 73.1 29.50 73.1 394 73 1415 -0.72 0.00 0.00 0.000
2:52am 100 0 0 44 99 72.4 73.0 29.50 73.0 394 73 1409 -0.81 0.00 0.00 0.000
2:53am 100 0 0 44 99 72.4 73.0 29.50 73.0 394 73 1409 -0.80 0.00 0.00 0.000
2:54am 100 0 0 44 99 72.4 73.1 29.50 73.1 394 73 1415 -0.68 0.00 0.00 0.000
2:55am 100 0 0 44 99 72.4 73.0 29.50 73.0 394 73 1409 -0.77 0.00 0.00 0.000
2:56am 100 0 0 44 99 72.4 73.0 29.50 73.0 393 73 1408 -0.76 0.00 0.00 0.000
2:57am 100 0 0 44 99 72.4 73.0 29.50 73.0 393 73 1408 -0.75 0.00 0.00 0.000
2:58am 100 0 0 44 99 72.4 73.0 29.50 73.0 393 73 1408 -0.73 0.00 0.00 0.000
2:59am 100 0 0 44 99 72.4 73.0 29.50 73.0 393 73 1408 -0.72 0.00 0.00 0.000
3:00am 100 0 0 44 99 72.4 73.0 29.50 73.0 393 73 1408 -0.71 0.00 0.00 0.000
3:01am 100 0 0 44 99 72.6 73.0 29.50 73.0 393 73 1408 -0.70 0.00 0.00 0.000
3:02am 100 0 0 44 99 72.6 73.0 29.50 73.0 393 73 1408 -0.69 0.00 0.00 0.000
3:03am 100 0 0 44 99 72.6 72.9 29.50 72.9 393 73 1402 -0.78 0.00 0.00 0.000
3:04am 100 0 0 44 99 72.6 73.0 29.50 73.0 393 73 1408 -0.66 0.00 0.00 0.000
3:05am 100 0 0 44 99 72.6 72.9 29.50 72.9 393 73 1402 -0.75 0.00 0.00 0.000
3:06am 100 0 0 44 99 72.6 72.9 29.50 72.9 393 73 1402 -0.74 0.00 0.00 0.000
3:07am 100 0 0 44 99 72.6 72.9 29.50 72.9 393 73 1402 -0.73 0.00 0.00 0.000
3:08am 100 0 0 44 99 72.6 72.9 29.50 72.9 393 73 1402 -0.72 0.00 0.00 0.000
3:09am 100 0 0 44 99 72.6 72.9 29.50 72.9 394 73 1403 -0.70 0.00 0.00 0.000
3:10am 100 0 0 44 99 72.6 72.8 29.50 72.8 394 73 1396 -0.79 0.00 0.00 0.000
3:11am 100 0 0 44 99 72.6 72.8 29.50 72.8 394 73 1396 -0.78 0.00 0.00 0.000
3:12am 100 0 0 44 99 72.6 72.8 29.50 72.8 394 73 1396 -0.76 0.00 0.00 0.000
3:13am 100 0 0 44 99 72.6 72.8 29.50 72.8 395 73 1397 -0.75 0.00 0.00 0.000
3:14am 100 0 0 44 99 72.6 72.8 29.50 72.8 395 73 1397 -0.74 0.00 0.00 0.000
3:15am 100 0 0 44 99 72.6 72.8 29.50 72.8 395 73 1397 -0.73 0.00 0.00 0.000
3:16am 100 0 0 44 99 72.6 72.8 29.50 72.8 395 73 1397 -0.72 0.00 0.00 0.000
3:17am 100 0 0 44 99 72.6 72.8 29.50 72.8 395 73 1397 -0.70 0.00 0.00 0.000
3:18am 100 0 0 44 99 72.6 72.8 29.50 72.8 395 73 1397 -0.69 0.00 0.00 0.000
3:19am 100 0 0 44 99 72.6 72.8 29.50 72.8 395 73 1397 -0.68 0.00 0.00 0.000
3:20am 100 0 0 44 99 72.6 72.8 29.50 72.8 395 73 1397 -0.67 0.00 0.00 0.000
3:21am 100 0 0 44 99 72.6 72.8 29.50 72.8 394 73 1396 -0.66 0.00 0.00 0.000
3:22am 100 0 0 44 99 72.6 72.8 29.50 72.8 394 73 1396 -0.65 0.00 0.00 0.000
3:23am 100 0 0 44 99 72.6 72.8 29.50 72.8 393 73 1395 -0.64 0.00 0.00 0.000
3:24am 100 0 0 44 99 72.6 72.7 29.50 72.7 393 73 1389 -0.73 0.00 0.00 0.000
3:25am 100 0 0 44 99 72.6 72.7 29.50 72.7 393 73 1389 -0.71 0.00 0.00 0.000
3:26am 100 0 0 44 99 72.6 72.8 29.50 72.8 393 73 1395 -0.60 0.00 0.00 0.000
3:27am 100 0 0 44 99 72.6 72.7 29.50 72.7 393 73 1389 -0.69 0.00 0.00 0.000
3:28am 100 0 0 44 99 72.6 72.6 29.50 72.6 393 73 1382 -0.78 0.00 0.00 0.000
3:29am 100 0 0 44 99 72.6 72.6 29.50 72.6 393 73 1382 -0.77 0.00 0.00 0.000
3:30am 100 0 0 44 99 72.6 72.7 29.50 72.7 393 73 1389 -0.66 0.00 0.00 0.000
3:31am 100 0 0 44 99 72.6 72.6 29.50 72.6 393 73 1382 -0.74 0.00 0.00 0.000
3:32am 100 0 0 44 99 72.6 72.6 29.50 72.6 394 73 1384 -0.73 0.00 0.00 0.000
3:33am 100 0 0 44 99 72.6 72.6 29.50 72.6 394 73 1384 -0.72 0.00 0.00 0.000
3:34am 100 0 0 44 99 72.6 72.7 29.50 72.7 395 73 1391 -0.61 0.00 0.00 0.000
3:35am 100 0 0 44 99 72.6 72.6 29.50 72.6 395 73 1385 -0.70 0.00 0.00 0.000
3:36am 100 0 0 44 99 72.6 72.6 29.50 72.6 394 73 1384 -0.68 0.00 0.00 0.000
3:37am 100 0 0 44 99 72.6 72.6 29.50 72.6 394 73 1384 -0.67 0.00 0.00 0.000
3:38am 100 0 0 44 99 72.6 72.6 29.50 72.6 393 73 1382 -0.66 0.00 0.00 0.000
3:39am 100 0 0 44 99 72.6 72.6 29.50 72.6 393 73 1382 -0.65 0.00 0.00 0.000
3:40am 100 0 0 44 99 72.6 72.6 29.50 72.6 393 73 1382 -0.64 0.00 0.00 0.000
3:41am 100 0 0 44 99 72.6 72.6 29.50 72.6 393 73 1382 -0.63 0.00 0.00 0.000
3:42am 100 0 0 44 99 72.6 72.6 29.50 72.6 393 73 1382 -0.62 0.00 0.00 0.000
3:43am 100 0 0 44 99 72.6 72.6 29.50 72.6 393 73 1382 -0.61 0.00 0.00 0.000
3:44am 100 0 0 44 99 72.6 72.5 29.50 72.5 393 73 1376 -0.70 0.00 0.00 0.000
3:45am 100 0 0 44 99 72.6 72.5 29.50 72.5 393 73 1376 -0.69 0.00 0.00 0.000
3:46am 100 0 0 44 99 72.6 72.5 29.50 72.5 393 73 1376 -0.68 0.00 0.00 0.000
3:47am 100 0 0 44 99 72.6 72.6 29.50 72.6 393 73 1382 -0.57 0.00 0.00 0.000
3:48am 100 0 0 44 99 72.6 72.5 29.50 72.5 393 73 1376 -0.66 0.00 0.00 0.000
3:49am 100 0 0 44 99 72.6 72.5 29.50 72.5 393 73 1376 -0.65 0.00 0.00 0.000
3:50am 100 0 0 44 99 72.6 72.5 29.50 72.5 393 73 1376 -0.64 0.00 0.00 0.000
3:51am 100 0 0 44 99 72.8 72.5 29.50 72.5 393 73 1376 -0.62 0.00 0.00 0.000
3:52am 100 0 0 44 99 72.8 72.5 29.50 72.5 393 73 1376 -0.61 0.00 0.00 0.000
3:53am 100 0 0 44 99 72.8 72.5 29.50 72.5 393 73 1376 -0.61 0.00 0.00 0.000
3:54am 100 0 0 44 99 72.8 72.5 29.50 72.5 393 73 1376 -0.60 0.00 0.00 0.000
3:55am 100 0 0 44 99 72.8 72.6 29.50 72.6 394 73 1384 -0.49 0.00 0.00 0.000
3:56am 100 0 0 44 99 72.8 72.5 29.50 72.5 393 73 1376 -0.58 0.00 0.00 0.000
3:57am 100 0 0 44 99 72.8 72.5 29.50 72.5 393 73 1376 -0.57 0.00 0.00 0.000
3:58am 100 0 0 44 99 72.8 72.5 29.50 72.5 393 73 1376 -0.56 0.00 0.00 0.000
3:59am 100 1 1 44 99 72.8 72.5 29.50 72.5 393 73 1376 -0.55 0.00 0.00 0.000
4:00am 100 1 2 44 99 72.8 72.5 29.50 72.5 393 73 1376 -0.54 0.00 0.00 0.000
4:01am 100 1 2 44 99 72.8 72.5 29.50 72.5 392 73 1375 -0.53 0.00 0.00 0.000
4:02am 100 1 2 44 99 72.8 72.6 29.50 72.6 393 73 1382 -0.42 0.00 0.00 0.000
4:03am 100 1 2 44 99 72.8 72.5 29.50 72.5 393 73 1376 -0.51 0.00 0.00 0.000
4:04am 100 1 2 44 99 72.8 72.5 29.50 72.5 392 73 1375 -0.51 0.00 0.00 0.000
4:05am 100 1 2 44 99 72.8 72.6 29.50 72.6 392 73 1381 -0.40 0.00 0.00 0.000
4:06am 100 0 1 44 99 72.8 72.5 29.50 72.5 391 73 1374 -0.49 0.00 0.00 0.000
4:07am 100 0 1 44 99 72.8 72.5 29.50 72.5 391 73 1374 -0.48 0.00 0.00 0.000
4:08am 100 1 1 44 99 72.8 72.5 29.50 72.5 391 73 1374 -0.47 0.00 0.00 0.000
4:09am 100 0 1 44 99 72.8 72.5 29.50 72.5 391 73 1374 -0.47 0.00 0.00 0.000
4:10am 100 2 2 44 99 72.8 72.5 29.50 72.5 391 73 1374 -0.46 0.00 0.00 0.000
4:11am 102 1 3 44 99 72.8 72.5 29.50 72.5 390 73 1373 -0.45 0.00 0.00 0.000
4:12am 102 2 3 44 99 72.6 72.5 29.50 72.5 390 73 1373 -0.44 0.00 0.00 0.000
4:13am 102 0 3 44 99 72.6 72.5 29.50 72.5 390 73 1373 -0.44 0.00 0.00 0.000
4:14am 102 0 3 44 99 72.6 72.5 29.50 72.5 389 73 1372 -0.43 0.00 0.00 0.000
4:15am 102 1 3 44 99 72.6 72.5 29.50 72.5 390 73 1373 -0.42 0.00 0.00 0.000
4:16am 102 0 2 44 99 72.6 72.5 29.50 72.5 391 73 1374 -0.41 0.00 0.00 0.000
4:17am 102 0 2 44 99 72.6 72.5 29.50 72.5 391 73 1374 -0.41 0.00 0.00 0.000
4:18am 102 0 2 44 99 72.6 72.5 29.50 72.5 391 73 1374 -0.40 0.00 0.00 0.000
4:19am 102 0 2 44 99 72.6 72.4 29.50 72.4 390 73 1366 -0.49 0.00 0.00 0.000
4:20am 102 0 2 44 99 72.6 72.5 29.50 72.5 389 73 1372 -0.38 0.00 0.00 0.000
4:21am 102 0 0 44 99 72.6 72.4 29.50 72.4 389 73 1365 -0.48 0.00 0.00 0.000
4:22am 102 0 0 44 99 72.6 72.4 29.50 72.4 388 73 1364 -0.47 0.00 0.00 0.000
4:23am 102 0 0 44 99 72.6 72.4 29.50 72.4 387 73 1363 -0.46 0.00 0.00 0.000
4:24am 102 0 0 44 99 72.6 72.4 29.50 72.4 386 73 1362 -0.45 0.00 0.00 0.000
4:25am 102 0 0 44 99 72.6 72.3 29.51 72.3 384 73 1353 -0.54 0.00 0.00 0.000
4:26am 102 0 0 44 99 72.6 72.3 29.51 72.3 384 73 1352 -0.54 0.00 0.00 0.000
4:27am 102 0 0 44 99 72.6 72.3 29.51 72.3 384 73 1352 -0.53 0.00 0.00 0.000
4:28am 102 0 1 44 99 72.6 72.3 29.51 72.3 384 73 1352 -0.52 0.00 0.00 0.000
4:29am 102 1 1 44 99 72.8 72.3 29.51 72.3 384 73 1353 -0.51 0.00 0.00 0.000
4:30am 102 0 1 44 99 72.8 72.3 29.51 72.3 384 73 1353 -0.50 0.00 0.00 0.000
4:31am 102 0 0 44 99 72.8 72.3 29.51 72.3 384 73 1353 -0.49 0.00 0.00 0.000
4:32am 102 0 1 44 99 72.8 72.3 29.51 72.3 384 73 1353 -0.49 0.00 0.00 0.000
4:33am 102 0 1 44 99 72.8 72.3 29.51 72.3 384 73 1353 -0.48 0.00 0.00 0.000
4:34am 102 0 1 44 99 72.8 72.2 29.51 72.2 384 73 1346 -0.57 0.00 0.00 0.000
4:35am 102 0 1 44 99 72.8 72.2 29.51 72.2 384 73 1347 -0.56 0.00 0.00 0.000
4:36am 102 0 0 44 99 72.8 72.2 29.51 72.2 383 73 1345 -0.55 0.00 0.00 0.000
4:37am 102 0 0 44 99 72.8 72.2 29.51 72.2 382 73 1344 -0.54 0.00 0.00 0.000
4:38am 102 0 0 44 99 72.8 72.2 29.51 72.2 382 73 1344 -0.53 0.00 0.00 0.000
4:39am 102 0 0 44 99 72.8 72.2 29.51 72.2 382 73 1344 -0.52 0.00 0.00 0.000
4:40am 102 0 0 44 99 72.8 72.1 29.51 72.1 382 73 1337 -0.62 0.00 0.00 0.000
4:41am 102 0 0 44 99 72.8 72.1 29.51 72.1 383 73 1338 -0.61 0.00 0.00 0.000
4:42am 102 0 0 44 99 72.8 72.2 29.51 72.2 383 73 1345 -0.50 0.00 0.00 0.000
4:43am 102 0 0 44 99 72.8 72.1 29.51 72.1 383 73 1338 -0.59 0.00 0.00 0.000
4:44am 102 0 0 44 99 72.8 72.1 29.51 72.1 382 73 1337 -0.58 0.00 0.00 0.000
4:45am 102 0 0 44 99 73.0 72.1 29.51 72.1 383 73 1338 -0.57 0.00 0.00 0.000
4:46am 102 0 0 44 99 73.0 72.1 29.51 72.1 384 73 1339 -0.56 0.00 0.00 0.000
4:47am 102 0 0 44 99 73.0 72.1 29.51 72.1 384 73 1339 -0.55 0.00 0.00 0.000
4:48am 102 0 0 44 99 73.0 72.1 29.51 72.1 384 73 1341 -0.54 0.00 0.00 0.000
4:49am 102 0 0 44 99 73.0 72.0 29.51 72.0 385 73 1335 -0.63 0.00 0.00 0.000
4:50am 102 1 1 44 99 73.0 72.1 29.51 72.1 385 73 1342 -0.52 0.00 0.00 0.000
4:51am 102 0 1 44 99 73.0 72.1 29.51 72.1 384 73 1341 -0.51 0.00 0.00 0.000
4:52am 102 0 1 44 99 72.8 72.0 29.51 72.0 384 73 1334 -0.60 0.00 0.00 0.000
4:53am 102 0 1 44 99 72.8 72.0 29.51 72.0 384 73 1334 -0.59 0.00 0.00 0.000
4:54am 102 0 1 44 99 72.8 72.0 29.51 72.0 384 73 1334 -0.58 0.00 0.00 0.000
4:55am 102 0 1 44 99 72.8 72.0 29.51 72.0 384 73 1334 -0.57 0.00 0.00 0.000
4:56am 102 0 0 44 99 72.8 72.0 29.50 72.0 386 73 1336 -0.56 0.00 0.00 0.000
4:57am 102 0 0 44 99 72.8 72.0 29.50 72.0 388 73 1339 -0.55 0.00 0.00 0.000
4:58am 102 0 0 44 99 72.8 71.9 29.50 71.9 388 73 1332 -0.64 0.00 0.00 0.000
4:59am 102 0 0 45 99 72.8 71.9 29.50 71.9 388 73 1332 -0.63 0.00 0.00 0.000
5:00am 102 0 0 44 99 72.8 71.9 29.50 71.9 388 73 1332 -0.62 0.00 0.00 0.000
5:01am 102 1 1 44 99 72.8 71.9 29.50 71.9 388 73 1332 -0.61 0.00 0.00 0.000
5:02am 102 1 1 44 99 72.8 71.9 29.50 71.9 388 73 1332 -0.60 0.00 0.00 0.000
5:03am 102 1 1 44 99 72.8 71.9 29.50 71.9 388 73 1332 -0.59 0.00 0.00 0.000
5:04am 102 1 1 44 99 72.8 71.9 29.50 71.9 388 73 1332 -0.58 0.00 0.00 0.000
5:05am 102 1 1 44 99 72.8 71.9 29.50 71.9 388 73 1332 -0.57 0.00 0.00 0.000
5:06am 102 0 1 44 99 72.8 71.8 29.50 71.8 388 73 1326 -0.66 0.00 0.00 0.000
5:07am 102 0 1 44 99 72.8 71.8 29.50 71.8 388 73 1326 -0.65 0.00 0.00 0.000
5:08am 102 0 1 44 99 72.8 71.8 29.50 71.8 389 73 1327 -0.64 0.00 0.00 0.000
5:09am 102 0 1 44 99 72.8 71.8 29.50 71.8 388 73 1326 -0.63 0.00 0.00 0.000
5:10am 102 0 1 44 99 72.8 71.8 29.50 71.8 388 73 1326 -0.62 0.00 0.00 0.000
5:11am 102 0 0 44 100 72.8 71.8 29.50 71.8 389 0 1327 -0.61 0.00 0.00 0.000
5:12am 102 0 0 44 99 72.8 71.8 29.50 71.8 388 73 1326 -0.60 0.00 0.00 0.000
5:13am 102 0 0 44 99 72.8 71.8 29.50 71.8 389 73 1327 -0.59 0.00 0.00 0.000
5:14am 102 0 0 44 99 72.8 71.8 29.50 71.8 388 73 1326 -0.58 0.00 0.00 0.000
5:15am 102 0 0 44 99 72.8 71.7 29.50 71.7 389 73 1321 -0.67 0.00 0.00 0.000
5:16am 102 0 0 44 99 72.8 71.7 29.50 71.7 388 73 1320 -0.66 0.00 0.00 0.000
5:17am 102 0 0 44 99 72.8 71.7 29.50 71.7 388 73 1320 -0.65 0.00 0.00 0.000
5:18am 102 0 0 44 99 72.8 71.7 29.50 71.7 387 73 1318 -0.64 0.00 0.00 0.000
5:19am 102 0 0 44 99 72.8 71.7 29.50 71.7 386 73 1317 -0.63 0.00 0.00 0.000
5:20am 102 0 0 44 99 72.8 71.7 29.51 71.7 385 73 1316 -0.62 0.00 0.00 0.000
5:21am 102 0 0 44 99 72.8 71.7 29.51 71.7 385 73 1316 -0.61 0.00 0.00 0.000
5:22am 102 0 0 44 99 72.8 71.6 29.51 71.6 384 73 1309 -0.70 0.00 0.00 0.000
5:23am 102 0 0 44 99 72.8 71.6 29.51 71.6 384 73 1308 -0.69 0.00 0.00 0.000
5:24am 102 0 0 44 99 73.0 71.6 29.51 71.6 384 73 1308 -0.67 0.00 0.00 0.000
5:25am 102 0 0 44 99 73.0 71.6 29.51 71.6 383 73 1306 -0.66 0.00 0.00 0.000
5:26am 102 0 0 44 99 73.0 71.5 29.51 71.5 382 73 1299 -0.75 0.00 0.00 0.000
5:27am 102 0 0 44 99 73.0 71.5 29.51 71.5 381 73 1298 -0.74 0.00 0.00 0.000
5:28am 102 0 0 44 99 73.0 71.5 29.51 71.5 381 73 1298 -0.73 0.00 0.00 0.000
5:29am 102 0 0 44 99 73.0 71.4 29.51 71.4 380 73 1290 -0.81 0.00 0.00 0.000
5:30am 102 0 0 44 99 73.0 71.4 29.51 71.4 380 73 1290 -0.80 0.00 0.00 0.000
5:31am 102 0 0 44 99 73.0 71.4 29.51 71.4 380 73 1290 -0.79 0.00 0.00 0.000
5:32am 102 0 0 44 99 73.0 71.4 29.51 71.4 380 73 1290 -0.78 0.00 0.00 0.000
5:33am 102 0 0 44 99 73.0 71.4 29.51 71.4 379 73 1289 -0.76 0.00 0.00 0.000
5:34am 102 0 0 44 99 73.0 71.4 29.51 71.4 380 73 1290 -0.75 0.00 0.00 0.000
5:35am 102 0 0 44 99 73.0 71.3 29.51 71.3 379 73 1283 -0.84 0.00 0.00 0.000
5:36am 102 0 0 44 99 73.0 71.3 29.51 71.3 379 73 1283 -0.83 0.00 0.00 0.000
5:37am 102 0 0 44 99 73.0 71.3 29.51 71.3 380 73 1284 -0.81 0.00 0.00 0.000
5:38am 102 0 0 44 99 73.0 71.3 29.51 71.3 380 73 1284 -0.80 0.00 0.00 0.000
5:39am 102 0 0 44 99 73.0 71.3 29.51 71.3 380 73 1284 -0.78 0.00 0.00 0.000
5:40am 102 0 0 44 99 73.0 71.2 29.51 71.2 380 73 1278 -0.87 0.00 0.00 0.000
5:41am 102 0 0 44 99 73.0 71.2 29.51 71.2 381 73 1279 -0.86 0.00 0.00 0.000
5:42am 102 0 0 44 99 73.0 71.2 29.51 71.2 381 73 1279 -0.84 0.00 0.00 0.000
5:43am 102 0 0 44 99 73.0 71.2 29.51 71.2 380 73 1278 -0.83 0.00 0.00 0.000
5:44am 102 0 0 44 99 73.0 71.2 29.51 71.2 380 73 1278 -0.82 0.00 0.00 0.000
5:45am 102 0 0 44 99 73.0 71.2 29.51 71.2 380 73 1278 -0.80 0.00 0.00 0.000
5:46am 102 0 0 44 99 73.0 71.2 29.51 71.2 380 73 1278 -0.79 0.00 0.00 0.000
5:47am 102 0 0 44 99 73.0 71.2 29.51 71.2 380 73 1278 -0.78 0.00 0.00 0.000
5:48am 102 0 0 44 99 73.0 71.2 29.51 71.2 380 73 1278 -0.76 0.00 0.00 0.000
5:49am 102 0 0 44 99 73.0 71.2 29.51 71.2 380 73 1278 -0.75 0.00 0.00 0.000
5:50am 102 0 0 44 99 72.8 71.2 29.51 71.2 380 73 1278 -0.74 0.00 0.00 0.000
5:51am 102 0 0 44 99 72.8 71.2 29.51 71.2 381 73 1279 -0.73 0.00 0.00 0.000
5:52am 102 0 0 44 99 72.8 71.2 29.51 71.2 381 73 1279 -0.71 0.00 0.00 0.000
5:53am 102 0 0 44 99 72.8 71.2 29.51 71.2 380 73 1278 -0.70 0.00 0.00 0.000
5:54am 102 0 0 44 99 72.8 71.2 29.51 71.2 380 73 1278 -0.69 0.00 0.00 0.000
5:55am 102 0 0 44 99 72.8 71.1 29.51 71.1 380 73 1271 -0.78 0.00 0.00 0.000
5:56am 102 0 0 44 99 72.8 71.1 29.51 71.1 379 73 1270 -0.77 0.00 0.00 0.000
5:57am 102 0 0 44 99 72.8 71.1 29.51 71.1 379 73 1270 -0.75 0.00 0.00 0.000
5:58am 102 0 0 44 99 72.8 71.1 29.51 71.1 379 73 1270 -0.74 0.00 0.00 0.000
5:59am 102 0 0 44 99 72.8 71.1 29.51 71.1 379 73 1270 -0.73 0.00 0.00 0.000
6:00am 102 0 0 44 99 72.8 71.0 29.51 71.0 379 73 1264 -0.81 0.00 0.00 0.000
6:01am 102 0 0 44 99 72.8 71.0 29.51 71.0 379 73 1264 -0.80 0.00 0.00 0.000
6:02am 102 0 0 44 99 72.8 71.0 29.51 71.0 379 73 1264 -0.79 0.00 0.00 0.000
6:03am 102 0 0 44 99 72.8 71.0 29.51 71.0 378 73 1263 -0.77 0.00 0.00 0.000
6:04am 102 0 0 44 99 72.8 71.0 29.51 71.0 378 73 1263 -0.76 0.00 0.00 0.000
6:05am 102 0 0 44 99 73.0 71.0 29.51 71.0 378 73 1263 -0.75 0.00 0.00 0.000
6:06am 102 0 0 44 99 73.0 71.0 29.51 71.0 378 73 1263 -0.74 0.00 0.00 0.000
6:07am 102 0 0 44 99 73.0 71.0 29.51 71.0 378 73 1263 -0.73 0.00 0.00 0.000
6:08am 102 0 0 44 99 73.0 71.0 29.51 71.0 378 73 1263 -0.71 0.00 0.00 0.000
6:09am 102 0 0 44 99 73.0 71.0 29.51 71.0 378 73 1263 -0.70 0.00 0.00 0.000
6:10am 102 0 0 44 99 73.0 71.0 29.51 71.0 378 73 1263 -0.69 0.00 0.00 0.000
6:11am 102 0 0 44 99 73.0 71.0 29.51 71.0 378 73 1263 -0.68 0.00 0.00 0.000
6:12am 102 0 0 44 99 73.0 71.0 29.51 71.0 379 73 1264 -0.67 0.00 0.00 0.000
6:13am 102 0 0 44 99 73.0 71.0 29.51 71.0 378 73 1263 -0.66 0.00 0.00 0.000
6:14am 102 0 0 44 99 73.0 71.0 29.51 71.0 378 73 1263 -0.65 0.00 0.00 0.000
6:15am 102 0 0 44 99 73.0 71.0 29.51 71.0 378 73 1263 -0.64 0.00 0.00 0.000
6:16am 102 0 0 44 99 73.0 71.1 29.51 71.1 378 73 1269 -0.53 0.00 0.00 0.000
6:17am 102 0 0 44 99 73.0 71.1 29.51 71.1 377 73 1268 -0.52 0.00 0.00 0.000
6:18am 102 0 0 44 99 73.0 71.1 29.51 71.1 377 73 1268 -0.51 0.00 0.00 0.000
6:19am 102 0 0 44 99 73.0 71.1 29.51 71.1 377 73 1268 -0.50 0.00 0.00 0.000
6:20am 102 0 0 44 99 73.0 71.1 29.51 71.1 377 73 1268 -0.49 0.00 0.00 0.000
6:21am 102 0 0 44 99 73.0 71.1 29.51 71.1 377 73 1268 -0.48 0.00 0.00 0.000
6:22am 102 0 0 44 99 73.1 71.1 29.51 71.1 378 73 1269 -0.47 0.00 0.00 0.000
6:23am 102 0 0 44 99 73.1 71.1 29.51 71.1 377 73 1268 -0.47 0.00 0.00 0.000
6:24am 102 0 0 44 99 73.1 71.0 29.51 71.0 378 73 1263 -0.56 0.00 0.00 0.000
6:25am 102 0 0 44 99 73.1 71.0 29.51 71.0 378 73 1263 -0.55 0.00 0.00 0.000
6:26am 102 0 0 44 99 73.1 71.1 29.51 71.1 378 73 1269 -0.44 0.00 0.00 0.000
6:27am 102 0 0 44 99 73.1 71.1 29.51 71.1 378 73 1269 -0.43 0.00 0.00 0.000
6:28am 102 0 0 44 99 73.1 71.0 29.51 71.0 378 73 1263 -0.53 0.00 0.00 0.000
6:29am 102 0 0 44 99 73.1 71.0 29.51 71.0 378 73 1263 -0.52 0.00 0.00 0.000
6:30am 102 0 0 44 99 73.1 71.0 29.51 71.0 378 73 1263 -0.51 0.00 0.00 0.000
6:31am 102 0 0 44 99 73.1 71.0 29.51 71.0 377 73 1261 -0.50 0.00 0.00 0.000
6:32am 102 0 0 44 99 73.1 71.1 29.52 71.1 376 73 1267 -0.39 0.00 0.00 0.000
6:33am 102 0 0 44 99 73.1 71.0 29.52 71.0 376 73 1260 -0.49 0.00 0.00 0.000
6:34am 102 0 0 44 99 73.1 71.1 29.52 71.1 376 73 1267 -0.38 0.00 0.00 0.000
6:35am 102 0 0 44 99 73.1 71.1 29.51 71.1 377 73 1268 -0.37 0.00 0.00 0.000
6:36am 102 0 0 44 99 73.1 71.0 29.51 71.0 377 73 1261 -0.46 0.00 0.00 0.000
6:37am 102 0 0 44 99 73.1 71.0 29.52 71.0 376 73 1260 -0.46 0.00 0.00 0.000
6:38am 102 0 0 44 99 73.1 71.0 29.51 71.0 377 73 1261 -0.45 0.00 0.00 0.000
6:39am 102 0 0 44 99 73.1 71.1 29.51 71.1 377 73 1268 -0.34 0.00 0.00 0.000
6:40am 102 0 0 44 99 73.3 71.0 29.51 71.0 377 73 1261 -0.43 0.00 0.00 0.000
6:41am 102 0 0 44 99 73.3 71.0 29.52 71.0 376 73 1260 -0.43 0.00 0.00 0.000
6:42am 102 0 0 44 99 73.3 71.0 29.51 71.0 377 73 1261 -0.42 0.00 0.00 0.000
6:43am 102 0 0 44 99 73.3 71.0 29.51 71.0 377 73 1261 -0.41 0.00 0.00 0.000
6:44am 102 0 0 44 99 73.3 71.0 29.51 71.0 377 73 1261 -0.41 0.00 0.00 0.000
6:45am 102 0 0 44 99 73.3 71.0 29.51 71.0 377 73 1261 -0.40 0.00 0.00 0.000
6:46am 102 0 0 44 99 73.3 71.0 29.52 71.0 376 73 1260 -0.39 0.00 0.00 0.000
6:47am 102 0 0 44 99 73.3 71.0 29.52 71.0 376 73 1260 -0.39 0.00 0.00 0.000
6:48am 102 0 0 44 99 73.3 71.0 29.52 71.0 376 73 1260 -0.38 0.00 0.00 0.000
6:49am 102 0 0 44 99 73.3 71.0 29.52 71.0 375 73 1259 -0.37 0.00 0.00 0.000
6:50am 102 0 0 44 99 73.3 71.0 29.52 71.0 375 73 1259 -0.37 0.00 0.00 0.000
6:51am 102 0 0 44 99 73.3 71.0 29.52 71.0 375 73 1259 -0.36 0.00 0.00 0.000
6:52am 102 0 0 44 99 73.3 71.0 29.52 71.0 375 73 1259 -0.36 0.00 0.00 0.000
6:53am 102 0 0 44 99 73.3 71.0 29.52 71.0 375 73 1259 -0.35 0.00 0.00 0.000
6:54am 102 0 0 44 99 73.3 71.0 29.52 71.0 375 73 1259 -0.34 0.00 0.00 0.000
6:55am 102 0 0 44 99 73.5 71.0 29.52 71.0 374 73 1258 -0.34 0.00 0.00 0.000
6:56am 102 0 0 44 99 73.5 71.0 29.52 71.0 374 73 1258 -0.33 0.00 0.00 0.000
6:57am 102 0 0 44 99 73.5 71.0 29.52 71.0 374 73 1258 -0.33 0.00 0.00 0.000
6:58am 102 0 0 44 99 73.5 71.0 29.52 71.0 374 73 1258 -0.32 0.00 0.00 0.000
6:59am 102 0 0 44 99 73.5 71.0 29.52 71.0 374 73 1258 -0.32 0.00 0.00 0.000
7:00am 102 0 0 44 99 73.5 70.9 29.52 70.9 374 73 1252 -0.41 0.00 0.00 0.000
7:01am 102 0 0 44 99 73.5 70.9 29.52 70.9 372 73 1249 -0.40 0.00 0.00 0.000
7:02am 102 0 0 44 99 73.5 70.9 29.52 70.9 372 73 1248 -0.40 0.00 0.00 0.000
7:03am 102 0 0 44 99 73.5 70.9 29.52 70.9 370 73 1246 -0.39 0.00 0.00 0.000
7:04am 102 0 0 44 99 73.5 70.9 29.52 70.9 368 73 1244 -0.39 0.00 0.00 0.000
7:05am 102 0 0 44 99 73.5 70.9 29.53 70.9 367 73 1243 -0.38 0.00 0.00 0.000
7:06am 102 0 0 44 99 73.5 70.9 29.53 70.9 366 73 1242 -0.37 0.00 0.00 0.000
7:07am 102 0 0 44 99 73.5 70.8 29.53 70.8 366 73 1235 -0.47 0.00 0.00 0.000
7:08am 102 0 0 44 99 73.5 70.8 29.53 70.8 365 73 1234 -0.46 0.00 0.00 0.000
7:09am 102 0 0 44 99 73.5 70.8 29.53 70.8 365 73 1234 -0.45 0.00 0.00 0.000
7:10am 102 0 0 44 99 73.6 70.8 29.53 70.8 363 73 1232 -0.44 0.00 0.00 0.000
7:11am 102 0 0 44 99 73.6 70.9 29.53 70.9 363 73 1238 -0.34 0.00 0.00 0.000
7:12am 102 0 0 44 99 73.6 70.8 29.53 70.8 363 73 1232 -0.43 0.00 0.00 0.000
7:13am 102 0 0 44 99 73.6 70.9 29.53 70.9 363 73 1238 -0.33 0.00 0.00 0.000
7:14am 102 0 0 44 99 73.6 70.9 29.53 70.9 363 73 1238 -0.32 0.00 0.00 0.000
7:15am 102 0 0 44 99 73.6 70.9 29.53 70.9 363 73 1238 -0.31 0.00 0.00 0.000
7:16am 102 0 0 44 99 73.6 70.9 29.53 70.9 363 73 1238 -0.31 0.00 0.00 0.000
7:17am 102 0 0 44 99 73.6 70.9 29.53 70.9 363 73 1238 -0.30 0.00 0.00 0.000
7:18am 102 0 0 44 99 73.6 70.9 29.53 70.9 363 73 1238 -0.30 0.00 0.00 0.000
7:19am 102 0 0 44 99 73.6 70.9 29.53 70.9 363 73 1238 -0.29 0.00 0.00 0.000
7:20am 102 0 0 44 99 73.6 70.9 29.53 70.9 363 73 1238 -0.29 0.00 0.00 0.000
7:21am 102 0 0 44 99 73.6 70.9 29.53 70.9 363 73 1238 -0.28 0.00 0.00 0.000
7:22am 102 0 0 44 99 73.8 70.9 29.53 70.9 363 73 1238 -0.28 0.00 0.00 0.000
7:23am 102 0 0 44 99 73.8 70.9 29.53 70.9 363 73 1238 -0.28 0.00 0.00 0.000
7:24am 102 0 0 44 99 73.8 70.9 29.53 70.9 363 73 1238 -0.27 0.00 0.00 0.000
7:25am 102 0 0 44 99 73.8 70.9 29.53 70.9 363 73 1238 -0.27 0.00 0.00 0.000
7:26am 102 0 0 44 99 73.8 70.9 29.53 70.9 363 73 1238 -0.26 0.00 0.00 0.000
7:27am 102 0 0 44 99 73.8 70.9 29.53 70.9 363 73 1238 -0.26 0.00 0.00 0.000
7:28am 102 0 0 44 99 73.8 70.9 29.53 70.9 363 73 1238 -0.25 0.00 0.00 0.000
7:29am 102 0 0 44 99 73.8 70.9 29.53 70.9 363 73 1238 -0.25 0.00 0.00 0.000
7:30am 102 0 0 44 99 73.8 70.9 29.53 70.9 362 73 1237 -0.25 0.00 0.00 0.000
7:31am 102 0 0 44 99 73.8 70.9 29.53 70.9 362 73 1237 -0.24 0.00 0.00 0.000
7:32am 102 0 0 44 99 73.8 70.9 29.53 70.9 361 73 1236 -0.24 0.00 0.00 0.000
7:33am 102 0 0 44 99 73.8 70.9 29.53 70.9 361 73 1235 -0.23 0.00 0.00 0.000
7:34am 102 0 0 44 99 73.8 70.9 29.53 70.9 360 73 1234 -0.23 0.00 0.00 0.000
7:35am 102 0 0 44 99 74.0 71.0 29.54 71.0 358 73 1238 -0.13 0.00 0.00 0.000
7:36am 102 0 0 44 99 74.0 71.0 29.54 71.0 357 73 1237 -0.13 0.00 0.00 0.000
7:37am 102 0 0 44 99 74.0 71.0 29.54 71.0 354 73 1233 -0.12 0.00 0.00 0.000
7:38am 102 1 1 44 99 74.0 71.0 29.54 71.0 353 73 1232 -0.12 0.00 0.00 0.000
7:39am 102 0 1 44 99 74.0 70.9 29.54 70.9 352 73 1225 -0.22 0.00 0.00 0.000
7:40am 102 0 1 44 99 74.0 71.0 29.54 71.0 351 73 1230 -0.12 0.00 0.00 0.000
7:41am 102 0 0 44 99 74.0 71.0 29.54 71.0 351 73 1230 -0.11 0.00 0.00 0.000
7:42am 102 3 3 44 99 74.0 71.0 29.54 71.0 351 73 1230 -0.11 0.00 0.00 0.000
7:43am 102 2 3 44 99 74.0 71.0 29.54 71.0 352 73 1231 -0.11 0.00 0.00 0.000
7:44am 102 0 3 44 99 74.0 71.0 29.54 71.0 352 73 1231 -0.11 0.00 0.00 0.000
7:45am 102 0 3 44 99 74.0 71.0 29.54 71.0 351 73 1230 -0.11 0.00 0.00 0.000
7:46am 102 0 0 45 99 74.0 71.0 29.54 71.0 351 73 1230 -0.10 0.00 0.00 0.000
7:47am 102 0 0 44 99 74.0 71.0 29.54 71.0 350 73 1229 -0.10 0.00 0.00 0.000
7:48am 102 0 0 44 99 74.2 71.0 29.54 71.0 350 73 1229 -0.10 0.00 0.00 0.000
7:49am 102 0 0 44 99 74.2 71.1 29.54 71.1 350 73 1235 0.00 0.00 0.00 0.000
7:50am 102 0 0 44 99 74.2 71.1 29.54 71.1 350 73 1235 0.00 0.00 0.00 0.000
7:51am 102 0 0 44 99 74.2 71.1 29.54 71.1 351 73 1236 0.00 0.00 0.00 0.000
7:52am 102 0 0 44 99 74.2 71.1 29.54 71.1 351 73 1236 0.00 0.00 0.00 0.000
7:53am 100 2 5 45 99 74.2 71.1 29.54 71.1 353 73 1238 0.00 0.00 0.00 0.000
7:54am 100 3 5 44 99 74.2 71.2 29.54 71.2 354 73 1246 0.10 0.00 0.00 0.000
7:55am 100 2 5 45 99 74.2 71.1 29.54 71.1 353 73 1238 0.00 0.00 0.00 0.000
7:56am 64 3 4 44 99 74.2 71.1 29.54 71.1 353 73 1238 -0.00 0.00 0.00 0.000
7:57am 64 3 4 45 99 74.2 71.1 29.54 71.1 351 73 1236 -0.00 0.00 0.00 0.000
7:58am 64 1 4 45 99 74.2 71.2 29.54 71.2 350 73 1241 0.10 0.00 0.00 0.000
7:59am 64 0 4 44 99 74.2 71.2 29.54 71.2 350 73 1241 0.10 0.00 0.00 0.000
8:00am 64 0 4 45 99 74.2 71.2 29.54 71.2 350 73 1240 0.10 0.00 0.00 0.000
8:01am 64 0 0 44 99 74.3 71.2 29.54 71.2 350 73 1240 0.09 0.00 0.00 0.000
8:02am 64 0 0 44 99 74.3 71.2 29.54 71.2 350 73 1241 0.09 0.00 0.00 0.000
8:03am 64 0 0 44 99 74.3 71.3 29.54 71.3 350 73 1248 0.19 0.00 0.00 0.000
8:04am 64 0 0 44 99 74.3 71.3 29.54 71.3 350 73 1248 0.19 0.00 0.00 0.000
8:05am 64 0 0 44 99 74.3 71.3 29.54 71.3 350 73 1248 0.19 0.00 0.00 0.000
8:06am 64 0 0 45 99 74.3 71.3 29.54 71.3 351 73 1249 0.18 0.00 0.00 0.000
8:07am 64 0 1 45 99 74.3 71.3 29.54 71.3 351 73 1249 0.18 0.00 0.00 0.000
8:08am 64 0 2 45 99 74.3 71.4 29.54 71.4 351 73 1255 0.27 0.00 0.00 0.000
8:09am 64 2 3 44 99 74.3 71.4 29.54 71.4 351 73 1255 0.27 0.00 0.00 0.000
8:10am 77 3 4 45 99 74.3 71.4 29.54 71.4 351 73 1255 0.26 0.00 0.00 0.000
8:11am 77 0 3 44 98 74.3 71.5 29.54 71.5 351 148 1262 0.36 0.00 0.00 0.000
8:12am 71 3 3 45 98 74.3 71.5 29.54 71.5 351 148 1262 0.35 0.00 0.00 0.000
8:13am 69 2 4 45 98 74.3 71.5 29.54 71.5 351 148 1262 0.35 0.00 0.00 0.000
8:14am 48 4 4 45 98 74.3 71.5 29.54 71.5 350 148 1261 0.34 0.00 0.00 0.000
8:15am 67 1 5 45 98 74.5 71.5 29.54 71.5 351 148 1262 0.34 0.00 0.00 0.000
8:16am 76 4 4 45 98 74.5 71.5 29.54 71.5 350 148 1261 0.33 0.00 0.00 0.000
8:17am 85 6 6 44 98 74.5 71.5 29.54 71.5 350 148 1261 0.33 0.00 0.00 0.000
8:18am 85 1 6 45 98 74.5 71.5 29.54 71.5 350 148 1261 0.32 0.00 0.00 0.000
8:19am 85 5 6 45 98 74.5 71.5 29.54 71.5 350 148 1261 0.32 0.00 0.00 0.000
8:20am 81 4 6 45 98 74.5 71.5 29.54 71.5 350 148 1261 0.31 0.00 0.00 0.000
8:21am 58 5 7 45 98 74.5 71.5 29.54 71.5 350 148 1261 0.31 0.00 0.00 0.000
8:22am 68 3 7 44 98 74.5 71.5 29.54 71.5 350 148 1261 0.30 0.00 0.00 0.000
8:23am 61 3 7 45 98 74.5 71.5 29.54 71.5 350 148 1261 0.30 0.00 0.00 0.000
8:24am 61 2 7 45 98 74.5 71.5 29.54 71.5 351 148 1262 0.29 0.00 0.00 0.000
8:25am 61 1 7 45 97 74.5 71.5 29.54 71.5 351 223 1262 0.29 0.00 0.00 0.000
8:26am 77 2 4 44 97 74.5 71.6 29.54 71.6 351 223 1268 0.38 0.00 0.00 0.000
8:27am 79 3 4 45 97 74.5 71.6 29.54 71.6 350 223 1267 0.37 0.00 0.00 0.000
8:28am 79 0 4 45 97 74.5 71.6 29.54 71.6 350 223 1267 0.37 0.00 0.00 0.000
8:29am 79 1 4 45 97 74.5 71.6 29.54 71.6 350 223 1267 0.36 0.00 0.00 0.000
8:30am 66 4 4 45 97 74.5 71.6 29.54 71.6 350 223 1267 0.36 0.00 0.00 0.000
8:31am 77 3 5 45 97 74.7 71.6 29.54 71.6 350 223 1267 0.35 0.00 0.00 0.000
8:32am 77 1 5 45 97 74.7 71.6 29.54 71.6 350 223 1266 0.34 0.00 0.00 0.000
8:33am 77 1 5 45 97 74.7 71.7 29.54 71.7 350 223 1272 0.44 0.00 0.00 0.000
8:34am 77 1 5 45 97 74.7 71.7 29.54 71.7 350 223 1272 0.43 0.00 0.00 0.000
8:35am 37 0 5 44 97 74.7 71.7 29.54 71.7 350 223 1273 0.42 0.00 0.00 0.000
8:36am 79 5 6 45 97 74.7 71.7 29.54 71.7 350 223 1272 0.42 0.00 0.00 0.000
8:37am 79 2 6 45 97 74.7 71.7 29.54 71.7 350 223 1272 0.41 0.00 0.00 0.000
8:38am 79 0 6 45 97 74.7 71.7 29.54 71.7 350 223 1272 0.40 0.00 0.00 0.000
8:39am 79 1 6 45 97 74.7 71.7 29.54 71.7 350 223 1272 0.40 0.00 0.00 0.000
8:40am 79 0 6 45 97 74.7 71.8 29.54 71.8 350 223 1279 0.49 0.00 0.00 0.000
8:41am 79 0 0 45 97 74.7 71.8 29.55 71.8 349 223 1277 0.48 0.00 0.00 0.000
8:42am 79 0 1 45 97 74.7 71.8 29.55 71.8 349 223 1277 0.47 0.00 0.00 0.000
8:43am 79 0 1 45 97 74.7 71.9 29.55 71.9 348 223 1283 0.56 0.00 0.00 0.000
8:44am 79 1 1 45 97 74.7 71.9 29.55 71.9 347 223 1282 0.55 0.00 0.00 0.000
8:45am 79 1 4 45 97 74.7 71.9 29.55 71.9 346 223 1280 0.55 0.00 0.00 0.000
8:46am 79 0 1 45 97 74.9 71.9 29.55 71.9 346 223 1280 0.54 0.00 0.00 0.000
8:47am 79 0 1 45 97 74.9 72.0 29.55 72.0 344 223 1285 0.63 0.00 0.00 0.000
8:48am 79 2 2 45 96 74.9 72.0 29.55 72.0 344 300 1285 0.62 0.00 0.00 0.000
8:49am 79 0 2 45 96 74.9 71.9 29.55 71.9 343 300 1277 0.51 0.00 0.00 0.000
8:50am 79 0 2 45 96 74.9 72.0 29.55 72.0 342 300 1282 0.60 0.00 0.00 0.000
8:51am 79 0 0 45 96 74.9 72.0 29.55 72.0 341 300 1281 0.59 0.00 0.00 0.000
8:52am 79 1 2 45 96 74.9 72.0 29.55 72.0 341 300 1281 0.58 0.00 0.00 0.000
8:53am 79 0 2 45 96 74.9 72.0 29.55 72.0 342 300 1282 0.57 0.00 0.00 0.000
8:54am 79 2 2 45 96 74.9 72.0 29.55 72.0 342 300 1282 0.56 0.00 0.00 0.000
8:55am 66 4 7 45 95 74.9 72.0 29.55 72.0 342 377 1282 0.55 0.00 0.00 0.000
8:56am 77 3 4 45 95 74.9 72.0 29.55 72.0 342 377 1282 0.54 0.00 0.00 0.000
8:57am 72 0 4 45 95 74.9 71.9 29.55 71.9 343 376 1277 0.43 0.00 0.00 0.000
8:58am 77 2 4 45 95 74.9 72.0 29.55 72.0 343 377 1283 0.52 0.00 0.00 0.000
8:59am 78 2 4 45 95 74.9 72.0 29.55 72.0 340 377 1280 0.52 0.00 0.00 0.000
9:00am 71 1 4 45 95 74.9 72.0 29.55 72.0 341 377 1281 0.51 0.00 0.00 0.000
9:01am 71 2 2 45 95 75.0 72.0 29.55 72.0 341 377 1281 0.50 0.00 0.00 0.000
9:02am 71 1 2 45 95 75.0 72.0 29.55 72.0 341 377 1281 0.49 0.00 0.00 0.000
9:03am 71 0 2 45 95 75.0 72.1 29.55 72.1 342 377 1289 0.58 0.00 0.00 0.000
9:04am 35 1 5 45 95 75.0 72.1 29.55 72.1 342 377 1289 0.57 0.00 0.00 0.000
9:05am 35 1 5 45 95 75.0 72.1 29.55 72.1 342 377 1289 0.56 0.00 0.00 0.000
9:06am 35 1 1 45 95 75.0 72.1 29.55 72.1 343 377 1290 0.55 0.00 0.00 0.000
9:07am 35 2 2 45 95 75.0 72.2 29.55 72.2 345 377 1298 0.64 0.00 0.00 0.000
9:08am 57 1 4 45 95 75.0 72.2 29.55 72.2 346 377 1300 0.63 0.00 0.00 0.000
9:09am 57 1 4 45 95 75.0 72.2 29.55 72.2 345 377 1298 0.62 0.00 0.00 0.000
9:10am 60 1 4 45 94 75.0 72.2 29.55 72.2 345 455 1298 0.61 0.00 0.00 0.000
9:11am 61 0 3 45 94 75.0 72.3 29.55 72.3 346 455 1306 0.70 0.00 0.00 0.000
9:12am 72 4 4 45 94 75.0 72.3 29.55 72.3 345 455 1305 0.69 0.00 0.00 0.000
9:13am 70 3 4 45 94 75.0 72.3 29.55 72.3 345 455 1305 0.68 0.00 0.00 0.000
9:14am 75 3 5 45 94 75.0 72.3 29.55 72.3 345 455 1305 0.66 0.00 0.00 0.000
9:15am 76 4 5 45 94 75.0 72.3 29.55 72.3 345 455 1305 0.65 0.00 0.00 0.000
9:16am 76 4 4 45 94 75.0 72.3 29.55 72.3 345 455 1305 0.64 0.00 0.00 0.000
9:17am 76 0 4 45 94 75.0 72.3 29.55 72.3 347 455 1307 0.63 0.00 0.00 0.000
9:18am 76 1 4 45 94 75.2 72.3 29.55 72.3 347 455 1307 0.62 0.00 0.00 0.000
9:19am 76 4 4 45 94 75.2 72.4 29.55 72.4 348 455 1315 0.71 0.00 0.00 0.000
9:20am 70 3 4 45 94 75.2 72.4 29.55 72.4 349 455 1316 0.70 0.00 0.00 0.000
9:21am 70 2 4 45 94 75.2 72.3 29.55 72.3 349 455 1309 0.59 0.00 0.00 0.000
9:22am 70 2 4 45 94 75.2 72.3 29.54 72.3 350 455 1310 0.58 0.00 0.00 0.000
9:23am 70 2 4 45 94 75.2 72.3 29.54 72.3 350 455 1310 0.57 0.00 0.00 0.000
9:24am 70 2 4 45 94 75.2 72.3 29.54 72.3 350 455 1310 0.56 0.00 0.00 0.000
9:25am 52 2 4 45 94 75.2 72.4 29.54 72.4 350 455 1317 0.65 0.00 0.00 0.000
9:26am 52 1 2 45 94 75.2 72.3 29.54 72.3 350 455 1310 0.54 0.00 0.00 0.000
9:27am 52 0 2 45 94 75.2 72.4 29.54 72.4 350 455 1317 0.63 0.00 0.00 0.000
9:28am 41 1 3 45 94 75.2 72.4 29.54 72.4 350 455 1317 0.62 0.00 0.00 0.000
9:29am 41 2 3 45 94 75.2 72.5 29.54 72.5 350 455 1323 0.70 0.00 0.00 0.000
9:30am 41 1 3 45 94 75.2 72.4 29.54 72.4 350 455 1317 0.59 0.00 0.00 0.000
9:31am 60 2 2 46 94 75.2 72.4 29.54 72.4 350 455 1317 0.58 0.00 0.00 0.000
9:32am 77 1 3 45 94 75.2 72.4 29.55 72.4 349 455 1316 0.57 0.00 0.00 0.000
9:33am 77 0 3 45 94 75.2 72.5 29.55 72.5 349 455 1322 0.66 0.00 0.00 0.000
9:34am 77 1 3 45 95 75.2 72.5 29.55 72.5 349 377 1322 0.65 0.00 0.00 0.000
9:35am 77 1 3 45 94 75.2 72.5 29.55 72.5 349 455 1322 0.64 0.00 0.00 0.000
9:36am 77 0 1 45 95 75.4 72.5 29.55 72.5 349 377 1322 0.63 0.00 0.00 0.000
9:37am 77 0 1 45 95 75.4 72.6 29.55 72.6 349 378 1328 0.72 0.00 0.00 0.000
9:38am 77 0 1 45 95 75.4 72.6 29.55 72.6 349 378 1328 0.71 0.00 0.00 0.000
9:39am 77 2 2 45 95 75.4 72.6 29.55 72.6 349 378 1328 0.69 0.00 0.00 0.000
9:40am 77 1 2 45 94 75.4 72.6 29.55 72.6 349 455 1328 0.68 0.00 0.00 0.000
9:41am 77 0 1 45 94 75.4 72.7 29.55 72.7 349 456 1335 0.77 0.00 0.00 0.000
9:42am 77 1 1 45 95 75.4 72.7 29.55 72.7 349 378 1335 0.76 0.00 0.00 0.000
9:43am 77 0 1 45 95 75.4 72.7 29.55 72.7 349 378 1335 0.74 0.00 0.00 0.000
9:44am 76 4 4 45 95 75.4 72.7 29.55 72.7 349 378 1335 0.73 0.00 0.00 0.000
9:45am 76 0 4 45 94 75.4 72.7 29.55 72.7 349 456 1335 0.72 0.00 0.00 0.000
9:46am 76 1 1 45 94 75.4 72.6 29.55 72.6 349 455 1328 0.61 0.00 0.00 0.000
9:47am 76 0 2 45 94 75.4 72.6 29.55 72.6 349 455 1328 0.60 0.00 0.00 0.000
9:48am 76 1 2 45 94 75.4 72.6 29.55 72.6 348 455 1327 0.59 0.00 0.00 0.000
9:49am 76 1 2 45 94 75.4 72.6 29.55 72.6 347 455 1326 0.58 0.00 0.00 0.000
9:50am 76 0 2 45 94 75.4 72.6 29.55 72.6 346 455 1325 0.57 0.00 0.00 0.000
9:51am 76 1 1 45 94 75.4 72.6 29.55 72.6 345 455 1324 0.56 0.00 0.00 0.000
9:52am 76 1 2 45 94 75.4 72.6 29.55 72.6 344 455 1323 0.55 0.00 0.00 0.000
9:53am 76 3 3 45 94 75.4 72.6 29.55 72.6 342 455 1321 0.54 0.00 0.00 0.000
9:54am 76 1 3 45 94 75.4 72.6 29.55 72.6 342 455 1321 0.53 0.00 0.00 0.000
9:55am 76 2 4 45 94 75.4 72.6 29.55 72.6 343 455 1322 0.52 0.00 0.00 0.000
9:56am 76 0 3 45 94 75.4 72.6 29.55 72.6 344 455 1323 0.51 0.00 0.00 0.000
9:57am 76 2 3 45 94 75.4 72.6 29.55 72.6 342 455 1321 0.51 0.00 0.00 0.000
9:58am 76 3 3 45 94 75.4 72.6 29.55 72.6 342 455 1321 0.50 0.00 0.00 0.000
9:59am 75 2 4 45 94 75.4 72.6 29.55 72.6 343 455 1322 0.49 0.00 0.00 0.000
10:00am 75 3 4 45 94 75.2 72.6 29.55 72.6 343 455 1322 0.48 0.00 0.00 0.000
10:01am 79 1 4 45 94 75.2 72.6 29.55 72.6 343 455 1322 0.47 0.00 0.00 0.000
10:02am 79 1 4 45 94 75.2 72.6 29.55 72.6 344 455 1323 0.47 0.00 0.00 0.000
10:03am 79 3 4 45 94 75.2 72.6 29.55 72.6 345 455 1324 0.46 0.00 0.00 0.000
10:04am 79 3 4 45 94 75.2 72.6 29.55 72.6 346 455 1325 0.45 0.00 0.00 0.000
10:05am 79 0 4 45 94 75.2 72.6 29.55 72.6 346 455 1325 0.44 0.00 0.00 0.000
10:06am 79 0 1 45 94 75.2 72.5 29.55 72.5 346 455 1319 0.34 0.00 0.00 0.000
10:07am 79 0 1 45 95 75.2 72.6 29.55 72.6 346 378 1325 0.43 0.00 0.00 0.000
10:08am 79 1 2 45 95 75.2 72.6 29.55 72.6 346 378 1325 0.42 0.00 0.00 0.000
10:09am 79 1 2 45 95 75.2 72.6 29.55 72.6 345 378 1324 0.41 0.00 0.00 0.000
10:10am 79 0 2 45 95 75.2 72.6 29.55 72.6 344 378 1323 0.41 0.00 0.00 0.000
10:11am 79 2 3 45 95 75.2 72.6 29.55 72.6 344 378 1323 0.40 0.00 0.00 0.000
10:12am 79 3 4 45 95 75.2 72.6 29.55 72.6 343 378 1322 0.39 0.00 0.00 0.000
10:13am 79 2 4 45 94 75.2 72.6 29.55 72.6 344 455 1323 0.39 0.00 0.00 0.000
10:14am 79 1 4 45 94 75.2 72.6 29.55 72.6 343 455 1322 0.38 0.00 0.00 0.000
10:15am 79 2 4 45 94 75.2 72.6 29.55 72.6 344 455 1323 0.38 0.00 0.00 0.000
10:16am 79 0 2 45 95 75.2 72.6 29.55 72.6 344 378 1323 0.37 0.00 0.00 0.000
10:17am 79 1 2 45 95 75.2 72.6 29.55 72.6 343 378 1322 0.36 0.00 0.00 0.000
10:18am 79 1 4 45 95 75.2 72.6 29.55 72.6 343 378 1322 0.36 0.00 0.00 0.000
10:19am 79 3 4 45 94 75.2 72.7 29.55 72.7 341 456 1326 0.45 0.00 0.00 0.000
10:20am 79 3 4 45 94 75.2 72.6 29.55 72.6 339 455 1317 0.34 0.00 0.00 0.000
10:21am 79 1 3 45 94 75.2 72.7 29.56 72.7 339 456 1322 0.44 0.00 0.00 0.000
10:22am 79 0 3 45 94 75.2 72.6 29.56 72.6 337 455 1314 0.33 0.00 0.00 0.000
10:23am 79 0 3 45 95 75.2 72.7 29.56 72.7 337 378 1320 0.42 0.00 0.00 0.000
10:24am 79 0 3 45 95 75.2 72.7 29.56 72.7 337 378 1320 0.42 0.00 0.00 0.000
10:25am 79 1 3 45 95 75.2 72.8 29.56 72.8 337 378 1326 0.51 0.00 0.00 0.000
10:26am 79 0 1 45 95 75.2 72.8 29.56 72.8 338 378 1328 0.50 0.00 0.00 0.000
10:27am 79 1 1 45 95 75.4 72.8 29.56 72.8 337 378 1326 0.49 0.00 0.00 0.000
10:28am 79 1 2 45 95 75.4 72.9 29.56 72.9 337 378 1333 0.58 0.00 0.00 0.000
10:29am 79 1 2 45 95 75.4 72.9 29.56 72.9 337 378 1333 0.57 0.00 0.00 0.000
10:30am 79 0 2 45 95 75.4 73.0 29.56 73.0 337 378 1339 0.66 0.00 0.00 0.000
10:31am 79 0 1 45 95 75.4 73.0 29.56 73.0 337 378 1339 0.65 0.00 0.00 0.000
10:32am 79 1 1 45 95 75.4 73.0 29.56 73.0 337 378 1339 0.64 0.00 0.00 0.000
10:33am 79 1 1 45 95 75.4 73.0 29.56 73.0 337 378 1339 0.63 0.00 0.00 0.000
10:34am 79 0 1 45 95 75.4 73.1 29.56 73.1 338 378 1347 0.72 0.00 0.00 0.000
10:35am 79 2 4 45 95 75.4 73.1 29.56 73.1 338 378 1347 0.71 0.00 0.00 0.000
10:36am 79 3 3 45 94 75.4 73.1 29.56 73.1 338 456 1347 0.69 0.00 0.00 0.000
10:37am 79 0 3 45 94 75.4 73.1 29.56 73.1 339 456 1348 0.68 0.00 0.00 0.000
10:38am 79 2 3 45 94 75.4 73.1 29.56 73.1 339 456 1348 0.67 0.00 0.00 0.000
10:39am 79 1 3 45 94 75.4 73.1 29.56 73.1 339 456 1348 0.66 0.00 0.00 0.000
10:40am 79 0 3 45 94 75.4 73.1 29.56 73.1 339 456 1348 0.65 0.00 0.00 0.000
10:41am 79 1 2 45 94 75.4 73.2 29.56 73.2 339 457 1354 0.74 0.00 0.00 0.000
10:42am 79 2 2 45 94 75.4 73.2 29.56 73.2 339 457 1354 0.73 0.00 0.00 0.000
10:43am 79 2 3 45 93 75.4 73.2 29.56 73.2 339 535 1354 0.71 0.00 0.00 0.000
10:44am 79 3 3 45 93 75.4 73.2 29.56 73.2 339 535 1354 0.70 0.00 0.00 0.000
10:45am 79 0 3 45 93 75.4 73.2 29.55 73.2 339 535 1355 0.69 0.00 0.00 0.000
10:46am 79 1 2 45 93 75.6 73.3 29.55 73.3 340 536 1363 0.78 0.00 0.00 0.000
10:47am 79 1 2 45 93 75.6 73.3 29.55 73.3 340 536 1363 0.77 0.00 0.00 0.000
10:48am 79 0 2 45 93 75.6 73.5 29.55 73.5 339 536 1374 0.95 0.00 0.00 0.000
10:49am 79 0 2 45 94 75.6 73.5 29.55 73.5 339 457 1374 0.94 0.00 0.00 0.000
10:50am 79 0 2 45 93 75.6 73.6 29.55 73.6 340 536 1382 1.02 0.00 0.00 0.000
10:51am 79 0 0 45 93 75.6 73.6 29.55 73.6 340 536 1382 1.00 0.00 0.00 0.000
10:52am 79 0 2 45 93 75.6 73.7 29.55 73.7 341 536 1389 1.09 0.00 0.00 0.000
10:53am 79 0 2 45 93 75.6 73.7 29.55 73.7 343 536 1392 1.07 0.00 0.00 0.000
10:54am 79 0 2 45 93 75.6 73.8 29.55 73.8 345 537 1400 1.15 0.00 0.00 0.000
10:55am 79 1 2 45 93 75.6 73.9 29.55 73.9 345 537 1406 1.23 0.00 0.00 0.000
10:56am 79 0 3 45 92 75.6 74.0 29.55 74.0 347 617 1415 1.31 0.00 0.00 0.000
10:57am 79 4 5 45 92 75.6 74.0 29.55 74.0 347 617 1415 1.29 0.00 0.00 0.000
10:58am 79 4 6 45 91 75.6 74.0 29.55 74.0 348 697 1416 1.27 0.00 0.00 0.000
10:59am 79 3 6 45 91 75.6 73.9 29.55 73.9 348 697 1410 1.15 0.00 0.00 0.000
11:00am 79 2 6 45 91 75.6 73.9 29.55 73.9 348 697 1410 1.13 0.00 0.00 0.000
11:01am 79 1 2 45 91 75.6 74.0 29.55 74.0 348 697 1416 1.21 0.00 0.00 0.000
11:02am 79 3 3 45 91 75.6 74.0 29.55 74.0 349 697 1417 1.19 0.00 0.00 0.000
11:03am 79 4 4 45 91 75.6 74.1 29.55 74.1 349 698 1424 1.27 0.00 0.00 0.000
11:04am 79 0 4 45 91 75.6 74.1 29.54 74.1 350 698 1425 1.25 0.00 0.00 0.000
11:05am 85 5 7 45 91 75.6 74.3 29.54 74.3 350 698 1437 1.42 0.00 0.00 0.000
11:06am 77 4 7 45 90 75.6 74.3 29.54 74.3 350 780 1439 1.40 0.00 0.00 0.000
11:07am 77 2 7 45 90 75.6 74.3 29.54 74.3 350 780 1439 1.38 0.00 0.00 0.000
11:08am 77 0 7 45 90 75.6 74.3 29.54 74.3 350 780 1439 1.36 0.00 0.00 0.000
11:09am 77 1 7 45 90 75.6 74.4 29.54 74.4 350 780 1444 1.43 0.00 0.00 0.000
11:10am 77 0 7 45 91 75.6 74.6 29.54 74.6 350 699 1458 1.61 0.00 0.00 0.000
11:11am 79 3 6 45 90 75.6 74.6 29.54 74.6 350 781 1458 1.58 0.00 0.00 0.000
11:12am 81 4 6 45 88 75.6 74.7 29.54 74.7 350 947 1464 1.65 0.00 0.00 0.000
11:13am 81 5 6 45 88 75.6 74.7 29.54 74.7 350 947 1463 1.62 0.00 0.00 0.000
11:14am 81 2 6 45 88 75.6 74.7 29.54 74.7 350 947 1463 1.60 0.00 0.00 0.000
11:15am 81 4 6 45 88 75.6 74.8 29.54 74.8 350 947 1469 1.67 0.00 0.00 0.000
11:16am 81 1 4 45 88 75.6 74.8 29.55 74.8 349 947 1468 1.64 0.00 0.00 0.000
11:17am 81 1 4 45 88 75.6 74.9 29.55 74.9 349 947 1474 1.71 0.00 0.00 0.000
11:18am 80 4 5 45 88 75.6 74.9 29.55 74.9 349 947 1474 1.69 0.00 0.00 0.000
11:19am 76 3 7 45 87 75.6 75.0 29.55 75.0 348 1032 1479 1.76 0.00 0.00 0.000
11:20am 82 5 7 45 88 75.6 75.1 29.55 75.1 349 948 1487 1.83 0.00 0.00 0.000
11:21am 64 4 6 45 87 75.6 75.1 29.55 75.1 348 1032 1486 1.80 0.00 0.00 0.000
11:22am 64 1 6 45 86 75.6 75.2 29.55 75.2 348 1118 1492 1.87 0.00 0.00 0.000
11:23am 77 3 6 45 87 75.4 75.3 29.55 75.3 346 1033 1496 1.94 0.00 0.00 0.000
11:24am 79 2 6 45 87 75.4 75.4 29.55 75.4 346 1034 1503 2.00 0.00 0.00 0.000
11:25am 77 5 6 45 87 75.4 75.6 29.55 75.6 346 1034 1515 2.17 0.00 0.00 0.000
11:26am 77 2 6 45 86 75.4 75.7 29.55 75.7 346 1120 1521 2.23 0.00 0.00 0.000
11:27am 2 1 6 45 86 75.4 75.8 29.55 75.8 346 1121 1528 2.29 0.00 0.00 0.000
11:28am 85 2 6 45 86 75.4 75.8 29.55 75.8 346 1121 1528 2.25 0.00 0.00 0.000
11:29am 85 2 6 45 86 75.4 75.9 29.55 75.9 347 1121 1535 2.32 0.00 0.00 0.000
11:30am 85 0 6 45 86 75.4 76.0 29.55 76.0 347 1121 1542 2.38 0.00 0.00 0.000
11:31am 85 1 4 45 86 75.4 76.2 29.55 76.2 348 1122 1555 2.54 0.00 0.00 0.000
11:32am 82 5 7 45 86 75.4 76.3 29.55 76.3 348 1123 1562 2.59 0.00 0.00 0.000
11:33am 82 4 7 45 85 75.4 76.5 29.55 76.5 349 1210 1575 2.75 0.00 0.00 0.000
11:34am 81 3 7 45 84 75.4 76.6 29.55 76.6 349 1298 1582 2.80 0.00 0.00 0.000
11:35am 81 1 7 45 83 75.4 76.6 29.55 76.6 349 1386 1582 2.76 0.00 0.00 0.000
11:36am 81 1 2 45 83 75.4 76.7 29.55 76.7 349 1387 1588 2.81 0.00 0.00 0.000
11:37am 85 5 5 45 83 75.4 76.9 29.55 76.9 349 1388 1600 2.96 0.00 0.00 0.000
11:38am 85 3 5 45 83 75.4 77.0 29.55 77.0 348 1389 1606 3.01 0.00 0.00 0.000
11:39am 85 1 5 45 83 75.4 77.2 29.55 77.2 348 1390 1618 3.16 0.00 0.00 0.000
11:40am 85 3 5 45 83 75.4 77.3 29.55 77.3 347 1390 1623 3.20 0.00 0.00 0.000
11:41am 85 1 3 45 83 75.4 77.6 29.55 77.6 347 1392 1642 3.45 0.00 0.00 0.000
11:42am 85 0 3 45 82 75.4 77.8 29.55 77.8 348 1483 1656 3.59 0.00 0.00 0.000
11:43am 171 7 9 45 82 75.4 78.0 29.54 78.0 350 1484 1671 3.73 0.00 0.00 0.000
11:44am 159 5 9 45 80 75.4 78.2 29.54 78.2 350 1668 1683 3.86 0.00 0.00 0.000
11:45am 99 1 9 45 80 75.4 78.4 29.54 78.4 350 1669 1696 4.00 0.00 0.00 0.000
11:46am 99 3 3 45 80 75.4 78.4 29.54 78.4 351 1669 1698 3.93 0.00 0.00 0.000
11:47am 160 4 4 45 80 75.4 78.6 29.54 78.6 351 1670 1711 4.07 0.00 0.00 0.000
11:48am 184 2 7 46 80 75.4 78.7 29.54 78.7 351 1671 1717 4.10 0.00 0.00 0.000
11:49am 110 1 7 45 79 75.4 78.8 29.54 78.8 351 1765 1723 4.13 0.00 0.00 0.000
11:50am 110 1 7 45 79 75.4 78.8 29.54 78.8 351 1765 1723 4.06 0.00 0.00 0.000
11:51am 110 1 1 45 79 75.4 78.9 29.54 78.9 351 1765 1730 4.09 0.00 0.00 0.000
11:52am 110 0 1 45 79 75.4 79.0 29.54 79.0 351 1766 1736 4.13 0.00 0.00 0.000
11:53am 122 3 3 45 78 75.4 79.0 29.54 79.0 351 1860 1736 4.06 0.00 0.00 0.000
11:54am 101 3 4 45 78 75.4 79.1 29.54 79.1 350 1861 1741 4.09 0.00 0.00 0.000
11:55am 53 4 4 45 78 75.4 79.1 29.54 79.1 350 1861 1741 4.02 0.00 0.00 0.000
11:56am 79 4 8 45 77 75.4 79.1 29.54 79.1 350 1956 1740 3.96 0.00 0.00 0.000
11:57am 79 1 8 45 78 75.4 79.1 29.54 79.1 350 1861 1740 3.89 0.00 0.00 0.000
11:58am 79 1 8 45 78 75.4 79.2 29.54 79.2 350 1862 1747 3.92 0.00 0.00 0.000
11:59am 79 4 8 45 78 75.4 79.1 29.54 79.1 350 1861 1741 3.76 0.00 0.00 0.000
12:00pm 79 4 8 45 77 75.2 79.2 29.54 79.2 350 1957 1747 3.79 0.00 0.00 0.000
12:01pm 82 2 4 45 77 75.2 79.3 29.54 79.3 350 1958 1753 3.83 0.00 0.00 0.000
12:02pm 75 3 5 45 77 75.2 79.3 29.54 79.3 350 1958 1753 3.77 0.00 0.00 0.000
12:03pm 75 4 5 45 76 75.2 79.3 29.54 79.3 350 2054 1752 3.71 0.00 0.00 0.000
12:04pm 77 3 6 45 76 75.2 79.2 29.55 79.2 349 2053 1745 3.55 0.00 0.00 0.000
12:05pm 81 3 6 45 76 75.2 79.2 29.54 79.2 350 2053 1746 3.49 0.00 0.00 0.000
12:06pm 73 2 5 45 76 75.2 79.1 29.54 79.1 350 2052 1740 3.33 0.00 0.00 0.000
12:07pm 81 3 6 45 76 75.2 79.0 29.54 79.0 350 2051 1734 3.18 0.00 0.00 0.000
12:08pm 87 3 6 45 77 75.0 79.1 29.54 79.1 350 1956 1741 3.22 0.00 0.00 0.000
12:09pm 87 1 6 45 77 75.0 79.1 29.54 79.1 350 1956 1741 3.17 0.00 0.00 0.000
12:10pm 149 4 7 45 76 75.0 79.1 29.54 79.1 350 2052 1741 3.12 0.00 0.00 0.000
12:11pm 156 4 6 45 77 75.0 79.1 29.54 79.1 350 1956 1741 3.07 0.00 0.00 0.000
12:12pm 151 1 6 45 77 75.0 79.1 29.54 79.1 350 1956 1741 3.02 0.00 0.00 0.000
12:13pm 151 0 6 45 78 75.0 79.1 29.54 79.1 350 1861 1741 2.97 0.00 0.00 0.000
12:14pm 160 2 6 45 78 75.0 79.1 29.54 79.1 350 1861 1741 2.92 0.00 0.00 0.000
12:15pm 160 1 6 45 78 75.0 79.2 29.54 79.2 350 1862 1747 2.97 0.00 0.00 0.000
12:16pm 75 4 5 45 78 75.0 79.4 29.54 79.4 350 1863 1759 3.11 0.00 0.00 0.000
12:17pm 77 4 5 45 77 75.0 79.4 29.54 79.4 350 1958 1759 3.06 0.00 0.00 0.000
12:18pm 80 1 5 45 76 75.0 79.5 29.54 79.5 350 2056 1765 3.11 0.00 0.00 0.000
12:19pm 80 2 5 45 76 75.2 79.6 29.54 79.6 350 2056 1771 3.16 0.00 0.00 0.000
12:20pm 82 3 5 45 76 75.0 79.7 29.54 79.7 350 2057 1777 3.21 0.00 0.00 0.000
12:21pm 82 3 4 45 77 75.2 79.8 29.54 79.8 350 1962 1784 3.25 0.00 0.00 0.000
12:22pm 82 2 4 45 75 75.2 79.8 29.54 79.8 350 2156 1784 3.20 0.00 0.00 0.000
12:23pm 82 1 4 45 75 75.2 79.8 29.54 79.8 350 2156 1784 3.15 0.00 0.00 0.000
12:24pm 82 2 4 45 75 75.2 79.8 29.54 79.8 350 2156 1784 3.10 0.00 0.00 0.000
12:25pm 82 3 6 45 75 75.2 79.8 29.54 79.8 350 2156 1785 3.04 0.00 0.00 0.000
12:26pm 82 1 5 45 76 75.2 79.8 29.54 79.8 350 2058 1784 2.99 0.00 0.00 0.000
12:27pm 82 3 5 45 76 75.2 79.7 29.54 79.7 350 2057 1777 2.85 0.00 0.00 0.000
12:28pm 82 2 5 45 77 75.2 79.7 29.54 79.7 350 1961 1777 2.80 0.00 0.00 0.000
12:29pm 82 5 5 45 77 75.2 79.7 29.54 79.7 350 1961 1777 2.75 0.00 0.00 0.000
12:30pm 81 2 5 45 77 75.2 79.8 29.54 79.8 350 1962 1785 2.81 0.00 0.00 0.000
12:31pm 82 2 3 45 77 75.2 80.0 29.54 80.0 350 1963 1796 2.96 0.00 0.00 0.000
12:32pm 82 0 3 45 78 75.2 80.1 29.54 80.1 351 1869 1805 3.01 0.00 0.00 0.000
12:33pm 82 0 3 45 76 75.2 80.3 29.54 80.3 351 2062 1817 3.16 0.00 0.00 0.000
12:34pm 82 3 4 45 76 75.0 80.5 29.54 80.5 351 2064 1830 3.30 0.00 0.00 0.000
12:35pm 83 3 6 45 75 75.0 80.7 29.54 80.7 351 2164 1842 3.45 0.00 0.00 0.000
12:36pm 83 2 3 45 75 75.0 80.7 29.54 80.7 351 2164 1842 3.39 0.00 0.00 0.000
12:37pm 83 3 3 45 75 75.0 80.7 29.54 80.7 351 2164 1842 3.34 0.00 0.00 0.000
12:38pm 83 3 4 45 75 75.0 80.6 29.54 80.6 351 2163 1836 3.18 0.00 0.00 0.000
12:39pm 83 2 4 45 75 75.0 80.6 29.54 80.6 351 2163 1836 3.13 0.00 0.00 0.000
12:40pm 83 5 5 45 76 75.0 80.6 29.54 80.6 351 2065 1836 3.08 0.00 0.00 0.000
12:41pm 75 4 6 45 75 75.0 80.6 29.54 80.6 351 2163 1836 3.03 0.00 0.00 0.000
12:42pm 62 3 6 45 75 75.0 80.6 29.54 80.6 351 2163 1836 2.97 0.00 0.00 0.000
12:43pm 83 4 6 45 75 75.0 80.5 29.54 80.5 351 2162 1830 2.83 0.00 0.00 0.000
12:44pm 83 3 6 45 75 74.9 80.5 29.54 80.5 351 2162 1830 2.78 0.00 0.00 0.000
12:45pm 83 6 6 45 75 74.9 80.4 29.54 80.4 351 2161 1823 2.64 0.00 0.00 0.000
12:46pm 83 4 7 45 75 74.9 80.3 29.54 80.3 352 2160 1818 2.49 0.00 0.00 0.000
12:47pm 83 1 7 45 75 74.9 80.2 29.54 80.2 352 2159 1812 2.35 0.00 0.00 0.000
12:48pm 83 0 7 45 76 74.9 80.2 29.54 80.2 351 2062 1811 2.31 0.00 0.00 0.000
12:49pm 83 3 7 45 76 74.9 80.3 29.54 80.3 353 2062 1819 2.38 0.00 0.00 0.000
12:50pm 83 1 7 45 76 74.9 80.3 29.54 80.3 352 2062 1818 2.33 0.00 0.00 0.000
12:51pm 83 3 3 45 77 74.7 80.3 29.54 80.3 352 1966 1818 2.29 0.00 0.00 0.000
12:52pm 83 2 4 45 75 74.7 80.5 29.54 80.5 353 2162 1832 2.46 0.00 0.00 0.000
12:53pm 83 0 4 45 75 74.7 80.5 29.54 80.5 353 2162 1832 2.42 0.00 0.00 0.000
12:54pm 83 3 4 45 76 74.7 80.6 29.54 80.6 354 2065 1839 2.47 0.00 0.00 0.000
12:55pm 85 5 7 45 76 74.7 80.8 29.54 80.8 353 2067 1851 2.63 0.00 0.00 0.000
12:56pm 86 5 5 45 76 74.7 80.9 29.54 80.9 355 2067 1859 2.69 0.00 0.00 0.000
12:57pm 86 3 5 45 76 74.7 80.9 29.54 80.9 356 2067 1860 2.64 0.00 0.00 0.000
12:58pm 86 2 5 45 75 74.7 81.0 29.54 81.0 358 2166 1869 2.70 0.00 0.00 0.000
12:59pm 86 2 5 45 75 74.7 81.1 29.54 81.1 358 2167 1875 2.75 0.00 0.00 0.000
1:00pm 162 4 5 45 75 74.7 81.2 29.53 81.2 359 2168 1882 2.81 0.00 0.00 0.000
1:01pm 165 2 4 45 74 74.7 81.3 29.53 81.3 360 2268 1890 2.86 0.00 0.00 0.000
1:02pm 166 3 4 45 74 74.7 81.4 29.53 81.4 360 2269 1896 2.91 0.00 0.00 0.000
1:03pm 160 4 5 45 73 74.7 81.5 29.53 81.5 360 2371 1902 2.96 0.00 0.00 0.000
1:04pm 106 0 5 45 72 74.7 81.5 29.53 81.5 361 2473 1903 2.91 0.00 0.00 0.000
1:05pm 98 1 5 45 73 74.7 81.6 29.53 81.6 361 2372 1911 2.96 0.00 0.00 0.000
1:06pm 222 3 4 45 73 74.7 81.8 29.53 81.8 361 2374 1923 3.11 0.00 0.00 0.000
1:07pm 223 2 4 45 73 74.9 81.8 29.53 81.8 361 2374 1923 3.06 0.00 0.00 0.000
1:08pm 223 1 4 45 73 74.9 81.8 29.53 81.8 361 2374 1923 3.01 0.00 0.00 0.000
1:09pm 223 1 4 45 73 74.9 81.9 29.53 81.9 362 2375 1930 3.06 0.00 0.00 0.000
1:10pm 223 1 4 45 74 74.9 82.0 29.53 82.0 362 2275 1937 3.11 0.00 0.00 0.000
1:11pm 223 0 2 45 74 74.9 82.0 29.53 82.0 361 2275 1935 3.06 0.00 0.00 0.000
1:12pm 223 2 2 45 74 74.9 82.0 29.53 82.0 361 2275 1935 3.01 0.00 0.00 0.000
1:13pm 168 1 5 45 73 74.9 82.0 29.53 82.0 361 2376 1935 2.96 0.00 0.00 0.000
1:14pm 179 5 5 45 72 74.9 82.1 29.53 82.1 361 2479 1942 3.01 0.00 0.00 0.000
1:15pm 112 4 6 45 71 74.9 82.0 29.53 82.0 361 2581 1935 2.86 0.00 0.00 0.000
1:16pm 147 5 5 45 72 74.9 81.9 29.53 81.9 361 2477 1929 2.71 0.00 0.00 0.000
1:17pm 151 4 5 45 70 74.9 81.8 29.53 81.8 361 2684 1923 2.57 0.00 0.00 0.000
1:18pm 147 4 5 45 71 74.9 81.7 29.53 81.7 361 2578 1917 2.43 0.00 0.00 0.000
1:19pm 160 4 5 45 71 74.9 81.5 29.53 81.5 361 2576 1903 2.19 0.00 0.00 0.000
1:20pm 173 3 5 45 71 74.9 81.4 29.53 81.4 361 2575 1897 2.05 0.00 0.00 0.000
1:21pm 174 2 3 45 72 74.9 81.3 29.53 81.3 360 2471 1890 1.92 0.00 0.00 0.000
1:22pm 174 3 4 45 72 74.9 81.1 29.53 81.1 360 2469 1877 1.69 0.00 0.00 0.000
1:23pm 174 0 4 45 72 74.7 81.0 29.53 81.0 361 2468 1872 1.56 0.00 0.00 0.000
1:24pm 174 0 4 45 73 74.7 81.0 29.53 81.0 361 2366 1873 1.54 0.00 0.00 0.000
1:25pm 174 0 4 45 72 74.7 81.0 29.53 81.0 361 2468 1873 1.51 0.00 0.00 0.000
1:26pm 174 0 0 45 73 74.7 81.0 29.53 81.0 362 2366 1874 1.49 0.00 0.00 0.000
1:27pm 174 0 0 45 73 74.7 81.0 29.53 81.0 363 2366 1875 1.46 0.00 0.00 0.000
1:28pm 174 0 0 45 73 74.7 81.1 29.53 81.1 363 2367 1882 1.54 0.00 0.00 0.000
1:29pm 174 0 0 45 74 74.7 81.1 29.53 81.1 362 2267 1880 1.51 0.00 0.00 0.000
1:30pm 174 0 0 45 74 74.7 81.2 29.53 81.2 363 2268 1888 1.59 0.00 0.00 0.000
1:31pm 174 0 0 45 74 74.7 81.3 29.53 81.3 363 2268 1894 1.66 0.00 0.00 0.000
1:32pm 174 0 0 45 74 74.7 81.3 29.53 81.3 363 2268 1894 1.63 0.00 0.00 0.000
1:33pm 128 1 3 45 73 74.5 81.5 29.53 81.5 363 2371 1907 1.80 0.00 0.00 0.000
1:34pm 130 0 3 45 74 74.5 81.6 29.53 81.6 363 2271 1913 1.87 0.00 0.00 0.000
1:35pm 104 3 3 45 73 74.5 81.7 29.53 81.7 362 2373 1918 1.94 0.00 0.00 0.000
1:36pm 87 6 6 45 72 74.5 81.8 29.53 81.8 363 2476 1925 2.01 0.00 0.00 0.000
1:37pm 87 4 6 44 73 74.5 81.9 29.53 81.9 363 2375 1931 2.07 0.00 0.00 0.000
1:38pm 87 2 6 45 72 74.5 81.9 29.53 81.9 364 2477 1933 2.04 0.00 0.00 0.000
1:39pm 87 1 6 45 72 74.5 81.9 29.53 81.9 364 2477 1933 2.01 0.00 0.00 0.000
1:40pm 87 0 6 45 73 74.5 82.0 29.53 82.0 364 2376 1939 2.07 0.00 0.00 0.000
1:41pm 87 0 1 44 73 74.5 82.1 29.53 82.1 364 2377 1945 2.14 0.00 0.00 0.000
1:42pm 197 5 5 45 73 74.5 82.3 29.53 82.3 364 2379 1957 2.30 0.00 0.00 0.000
1:43pm 194 3 6 45 72 74.5 82.2 29.53 82.2 364 2480 1951 2.16 0.00 0.00 0.000
1:44pm 204 3 6 45 72 74.5 82.1 29.53 82.1 364 2479 1945 2.03 0.00 0.00 0.000
1:45pm 180 1 6 45 74 74.5 82.0 29.53 82.0 364 2275 1939 1.89 0.00 0.00 0.000
1:46pm 212 1 5 45 72 74.5 82.0 29.53 82.0 365 2478 1940 1.86 0.00 0.00 0.000
1:47pm 212 2 5 45 72 74.5 81.9 29.53 81.9 365 2477 1934 1.73 0.00 0.00 0.000
1:48pm 212 2 5 45 72 74.5 81.8 29.53 81.8 365 2476 1927 1.61 0.00 0.00 0.000
1:49pm 219 3 5 45 73 74.5 81.8 29.53 81.8 365 2374 1927 1.58 0.00 0.00 0.000
1:50pm 219 1 5 45 72 74.5 81.7 29.53 81.7 365 2475 1921 1.45 0.00 0.00 0.000
1:51pm 219 0 2 45 72 74.5 81.7 29.53 81.7 365 2475 1921 1.43 0.00 0.00 0.000
1:52pm 219 0 2 45 73 74.5 81.7 29.53 81.7 365 2373 1921 1.41 0.00 0.00 0.000
1:53pm 156 5 8 45 72 74.5 81.7 29.53 81.7 365 2475 1921 1.38 0.00 0.00 0.000
1:54pm 151 0 8 45 72 74.5 81.6 29.53 81.6 365 2474 1915 1.26 0.00 0.00 0.000
1:55pm 151 2 8 45 72 74.5 81.6 29.53 81.6 366 2474 1916 1.24 0.00 0.00 0.000
1:56pm 151 1 2 44 73 74.5 81.6 29.53 81.6 366 2372 1916 1.22 0.00 0.00 0.000
1:57pm 151 2 2 44 73 74.5 81.5 29.53 81.5 366 2371 1910 1.10 0.00 0.00 0.000
1:58pm 151 3 3 45 73 74.5 81.6 29.53 81.6 366 2372 1916 1.18 0.00 0.00 0.000
1:59pm 155 1 3 45 73 74.5 81.7 29.53 81.7 367 2373 1923 1.26 0.00 0.00 0.000
2:00pm 136 4 6 45 73 74.5 81.8 29.53 81.8 367 2374 1930 1.34 0.00 0.00 0.000
2:01pm 137 4 5 45 74 74.5 81.9 29.53 81.9 367 2274 1936 1.41 0.00 0.00 0.000
2:02pm 115 2 5 45 73 74.5 81.9 29.53 81.9 367 2375 1936 1.39 0.00 0.00 0.000
2:03pm 91 4 5 45 73 74.5 81.9 29.53 81.9 367 2375 1936 1.37 0.00 0.00 0.000
2:04pm 91 0 5 45 73 74.5 82.0 29.52 82.0 368 2376 1943 1.44 0.00 0.00 0.000
2:05pm 241 4 5 46 74 74.5 82.2 29.52 82.2 368 2277 1956 1.62 0.00 0.00 0.000
2:06pm 192 2 5 45 73 74.5 82.3 29.52 82.3 368 2379 1962 1.69 0.00 0.00 0.000
2:07pm 98 3 5 45 72 74.5 82.4 29.52 82.4 368 2482 1968 1.76 0.00 0.00 0.000
2:08pm 79 7 7 44 72 74.5 82.5 29.52 82.5 369 2483 1976 1.83 0.00 0.00 0.000
2:09pm 81 2 7 44 72 74.3 82.5 29.52 82.5 369 2483 1976 1.80 0.00 0.00 0.000
2:10pm 81 4 7 45 72 74.3 82.4 29.52 82.4 368 2482 1968 1.67 0.00 0.00 0.000
2:11pm 81 3 4 44 72 74.3 82.3 29.52 82.3 368 2481 1962 1.55 0.00 0.00 0.000
2:12pm 81 4 5 45 71 74.3 82.2 29.52 82.2 369 2583 1957 1.42 0.00 0.00 0.000
2:13pm 82 2 6 45 72 74.3 82.0 29.52 82.0 371 2478 1947 1.20 0.00 0.00 0.000
2:14pm 82 2 6 44 72 74.3 82.0 29.52 82.0 372 2478 1948 1.18 0.00 0.00 0.000
2:15pm 82 4 6 45 73 74.3 82.0 29.52 82.0 372 2376 1949 1.16 0.00 0.00 0.000
2:16pm 87 3 6 44 73 74.3 81.9 29.52 81.9 371 2375 1940 1.04 0.00 0.00 0.000
2:17pm 87 2 6 45 73 74.2 81.9 29.52 81.9 371 2375 1940 1.03 0.00 0.00 0.000
2:18pm 87 3 6 45 73 74.2 81.9 29.52 81.9 370 2375 1939 1.01 0.00 0.00 0.000
2:19pm 87 3 6 44 74 74.2 82.0 29.52 82.0 370 2275 1946 1.09 0.00 0.00 0.000
2:20pm 186 4 7 44 73 74.2 82.0 29.52 82.0 369 2376 1944 1.07 0.00 0.00 0.000
2:21pm 171 1 4 45 72 74.2 82.1 29.52 82.1 368 2479 1950 1.16 0.00 0.00 0.000
2:22pm 171 0 4 45 73 74.2 82.1 29.52 82.1 369 2377 1951 1.14 0.00 0.00 0.000
2:23pm 171 0 4 45 73 74.2 82.1 29.52 82.1 370 2377 1952 1.12 0.00 0.00 0.000
2:24pm 171 2 4 44 73 74.2 82.1 29.52 82.1 369 2377 1951 1.10 0.00 0.00 0.000
2:25pm 172 1 4 45 73 74.2 82.2 29.52 82.2 369 2378 1957 1.18 0.00 0.00 0.000
2:26pm 171 1 2 45 73 74.2 82.3 29.52 82.3 369 2379 1963 1.26 0.00 0.00 0.000
2:27pm 98 2 3 44 73 74.2 82.5 29.52 82.5 369 2381 1976 1.44 0.00 0.00 0.000
2:28pm 98 0 4 44 72 74.2 82.5 29.52 82.5 369 2483 1976 1.41 0.00 0.00 0.000
2:29pm 98 0 4 44 72 74.2 82.6 29.52 82.6 370 2484 1983 1.49 0.00 0.00 0.000
2:30pm 165 5 5 44 73 74.2 82.7 29.52 82.7 369 2383 1988 1.56 0.00 0.00 0.000
2:31pm 158 2 7 45 72 74.2 82.6 29.52 82.6 369 2484 1982 1.44 0.00 0.00 0.000
2:32pm 158 0 7 45 72 74.2 82.5 29.52 82.5 369 2483 1976 1.32 0.00 0.00 0.000
2:33pm 153 1 7 45 72 74.2 82.5 29.52 82.5 370 2483 1977 1.29 0.00 0.00 0.000
2:34pm 154 2 7 44 73 74.2 82.5 29.52 82.5 370 2381 1977 1.27 0.00 0.00 0.000
2:35pm 150 0 7 44 73 74.2 82.6 29.52 82.6 369 2382 1982 1.35 0.00 0.00 0.000
2:36pm 165 5 5 44 73 74.2 82.6 29.52 82.6 368 2382 1981 1.33 0.00 0.00 0.000
2:37pm 196 4 5 45 73 74.2 82.7 29.53 82.7 367 2383 1986 1.40 0.00 0.00 0.000
2:38pm 167 6 8 44 72 74.2 82.6 29.53 82.6 367 2484 1979 1.28 0.00 0.00 0.000
2:39pm 162 5 8 45 72 74.2 82.3 29.53 82.3 367 2481 1961 0.96 0.00 0.00 0.000
2:40pm 166 2 8 44 72 74.2 82.0 29.53 82.0 366 2478 1941 0.65 0.00 0.00 0.000
2:41pm 154 1 3 45 73 74.2 81.9 29.53 81.9 366 2375 1935 0.54 0.00 0.00 0.000
2:42pm 96 4 4 44 73 74.2 81.8 29.53 81.8 366 2374 1929 0.43 0.00 0.00 0.000
2:43pm 96 1 4 45 73 74.2 81.8 29.53 81.8 366 2374 1929 0.43 0.00 0.00 0.000
2:44pm 96 0 4 45 73 74.2 81.9 29.53 81.9 367 2375 1936 0.52 0.00 0.00 0.000
2:45pm 96 0 4 45 73 74.2 82.0 29.53 82.0 367 2376 1942 0.61 0.00 0.00 0.000
2:46pm 96 1 2 45 73 74.2 82.0 29.53 82.0 367 2376 1942 0.60 0.00 0.00 0.000
2:47pm 96 1 2 45 73 74.2 82.1 29.53 82.1 367 2377 1948 0.69 0.00 0.00 0.000
2:48pm 96 2 2 44 73 74.2 82.3 29.53 82.3 367 2379 1961 0.88 0.00 0.00 0.000
2:49pm 96 1 4 44 73 74.2 82.3 29.53 82.3 366 2379 1960 0.86 0.00 0.00 0.000
2:50pm 96 0 5 44 73 74.2 82.3 29.53 82.3 366 2379 1960 0.85 0.00 0.00 0.000
2:51pm 96 3 3 44 74 74.2 82.3 29.53 82.3 367 2278 1961 0.83 0.00 0.00 0.000
2:52pm 96 3 5 45 73 74.2 82.4 29.53 82.4 367 2380 1967 0.92 0.00 0.00 0.000
2:53pm 96 1 5 45 74 74.0 82.4 29.53 82.4 367 2279 1967 0.90 0.00 0.00 0.000
2:54pm 96 0 5 44 72 74.0 82.4 29.53 82.4 367 2482 1967 0.89 0.00 0.00 0.000
2:55pm 96 3 5 44 73 74.0 82.5 29.52 82.5 368 2381 1974 0.97 0.00 0.00 0.000
2:56pm 96 1 3 44 72 74.0 82.5 29.52 82.5 368 2483 1974 0.96 0.00 0.00 0.000
2:57pm 96 1 3 44 72 74.0 82.6 29.52 82.6 368 2484 1981 1.04 0.00 0.00 0.000
2:58pm 96 2 3 44 72 74.0 82.7 29.52 82.7 369 2485 1988 1.12 0.00 0.00 0.000
2:59pm 96 1 3 44 74 74.0 82.7 29.52 82.7 369 2281 1988 1.10 0.00 0.00 0.000
3:00pm 96 1 3 44 72 74.0 82.7 29.52 82.7 370 2485 1989 1.09 0.00 0.00 0.000
3:01pm 96 0 2 45 74 74.0 82.8 29.52 82.8 370 2282 1995 1.17 0.00 0.00 0.000
3:02pm 96 0 2 45 74 74.0 82.9 29.52 82.9 370 2283 2001 1.25 0.00 0.00 0.000
3:03pm 96 0 2 44 73 74.0 83.0 29.52 83.0 372 2386 2010 1.32 0.00 0.00 0.000
3:04pm 96 0 2 44 73 73.8 83.1 29.52 83.1 371 2386 2015 1.40 0.00 0.00 0.000
3:05pm 148 4 4 44 73 73.8 83.1 29.52 83.1 372 2386 2016 1.38 0.00 0.00 0.000
3:06pm 160 2 5 44 72 73.8 83.0 29.52 83.0 372 2488 2010 1.26 0.00 0.00 0.000
3:07pm 160 4 6 44 71 73.8 82.9 29.52 82.9 372 2591 2004 1.14 0.00 0.00 0.000
3:08pm 142 4 7 44 72 73.8 82.8 29.52 82.8 372 2486 1999 1.02 0.00 0.00 0.000
3:09pm 131 2 7 44 72 73.8 82.6 29.52 82.6 372 2484 1986 0.80 0.00 0.00 0.000
3:10pm 131 0 7 44 72 73.8 82.5 29.52 82.5 372 2483 1980 0.69 0.00 0.00 0.000
3:11pm 131 1 2 44 72 73.8 82.6 29.52 82.6 373 2484 1987 0.78 0.00 0.00 0.000
3:12pm 160 1 2 44 72 73.8 82.6 29.52 82.6 374 2484 1988 0.77 0.00 0.00 0.000
3:13pm 159 0 2 44 72 73.8 82.7 29.52 82.7 375 2485 1996 0.85 0.00 0.00 0.000
3:14pm 99 0 4 44 71 73.8 82.8 29.52 82.8 376 2590 2003 0.94 0.00 0.00 0.000
3:15pm 99 0 4 44 71 73.8 82.9 29.51 82.9 377 2591 2010 1.02 0.00 0.00 0.000
3:16pm 99 1 2 44 71 73.8 83.0 29.51 83.0 377 2592 2017 1.10 0.00 0.00 0.000
3:17pm 99 0 2 44 72 73.8 83.1 29.51 83.1 377 2489 2023 1.18 0.00 0.00 0.000
3:18pm 99 1 2 44 71 73.8 83.2 29.51 83.2 377 2594 2029 1.26 0.00 0.00 0.000
3:19pm 99 1 2 44 71 73.8 83.3 29.51 83.3 379 2595 2038 1.34 0.00 0.00 0.000
3:20pm 99 4 5 44 71 73.8 83.4 29.51 83.4 379 2596 2044 1.42 0.00 0.00 0.000
3:21pm 99 1 4 45 71 73.8 83.5 29.51 83.5 379 2597 2050 1.49 0.00 0.00 0.000
3:22pm 99 2 5 44 72 73.8 83.5 29.51 83.5 378 2493 2049 1.47 0.00 0.00 0.000
3:23pm 99 3 5 45 73 73.8 83.4 29.51 83.4 378 2389 2043 1.34 0.00 0.00 0.000
3:24pm 99 4 5 45 70 73.8 83.3 29.51 83.3 378 2700 2036 1.22 0.00 0.00 0.000
3:25pm 99 2 5 44 70 73.8 83.3 29.51 83.3 379 2700 2038 1.20 0.00 0.00 0.000
3:26pm 175 2 4 45 71 73.8 83.1 29.51 83.1 378 2593 2024 0.99 0.00 0.00 0.000
3:27pm 175 0 4 45 71 73.8 82.8 29.51 82.8 379 2590 2006 0.67 0.00 0.00 0.000
3:28pm 171 0 4 44 71 73.8 82.7 29.51 82.7 379 2589 2000 0.56 0.00 0.00 0.000
3:29pm 95 2 4 45 71 73.8 82.7 29.51 82.7 379 2589 2000 0.55 0.00 0.00 0.000
3:30pm 95 2 4 45 72 73.8 82.7 29.51 82.7 379 2485 2000 0.54 0.00 0.00 0.000
3:31pm 95 1 2 45 72 74.0 82.6 29.51 82.6 379 2484 1994 0.43 0.00 0.00 0.000
3:32pm 98 3 3 45 72 74.0 82.6 29.51 82.6 379 2484 1994 0.43 0.00 0.00 0.000
3:33pm 125 1 5 44 72 74.0 82.6 29.51 82.6 379 2484 1994 0.42 0.00 0.00 0.000
3:34pm 203 4 5 45 72 74.0 82.6 29.51 82.6 379 2484 1994 0.41 0.00 0.00 0.000
3:35pm 131 2 5 45 73 74.0 82.5 29.51 82.5 378 2381 1987 0.31 0.00 0.00 0.000
3:36pm 125 2 3 44 73 74.0 82.5 29.51 82.5 378 2381 1987 0.30 0.00 0.00 0.000
3:37pm 125 0 3 45 73 74.0 82.3 29.51 82.3 379 2379 1975 0.10 0.00 0.00 0.000
3:38pm 125 0 3 44 72 74.0 82.3 29.51 82.3 379 2481 1975 0.10 0.00 0.00 0.000
3:39pm 112 3 3 45 73 74.0 82.3 29.51 82.3 379 2379 1975 0.09 0.00 0.00 0.000
3:40pm 110 0 4 45 72 74.0 82.3 29.51 82.3 379 2481 1975 0.09 0.00 0.00 0.000
3:41pm 95 3 3 45 73 74.0 82.3 29.51 82.3 380 2379 1977 0.09 0.00 0.00 0.000
3:42pm 95 2 5 44 73 74.0 82.3 29.51 82.3 380 2379 1977 0.09 0.00 0.00 0.000
3:43pm 95 1 5 45 73 74.0 82.3 29.51 82.3 380 2379 1977 0.09 0.00 0.00 0.000
3:44pm 95 0 5 45 73 74.0 82.2 29.51 82.2 380 2378 1970 -0.01 0.00 0.00 0.000
3:45pm 95 1 5 45 73 74.0 82.2 29.51 82.2 380 2378 1970 -0.01 0.00 0.00 0.000
3:46pm 97 3 5 44 73 74.0 82.3 29.51 82.3 380 2379 1977 0.08 0.00 0.00 0.000
3:47pm 96 4 5 44 73 74.0 82.4 29.51 82.4 380 2380 1983 0.18 0.00 0.00 0.000
3:48pm 96 1 5 45 73 74.0 82.5 29.51 82.5 381 2381 1990 0.28 0.00 0.00 0.000
3:49pm 96 0 5 44 74 73.8 82.5 29.51 82.5 381 2280 1990 0.27 0.00 0.00 0.000
3:50pm 96 1 5 44 74 73.8 82.7 29.51 82.7 380 2281 2001 0.47 0.00 0.00 0.000
3:51pm 96 0 3 45 73 73.8 82.8 29.51 82.8 381 2384 2009 0.56 0.00 0.00 0.000
3:52pm 187 5 5 44 73 73.8 82.9 29.51 82.9 381 2385 2015 0.65 0.00 0.00 0.000
3:53pm 120 0 5 44 73 73.8 82.9 29.51 82.9 381 2385 2015 0.64 0.00 0.00 0.000
3:54pm 120 1 5 44 72 73.8 83.0 29.51 83.0 382 2488 2022 0.73 0.00 0.00 0.000
3:55pm 120 0 5 44 72 73.8 83.1 29.51 83.1 382 2489 2028 0.82 0.00 0.00 0.000
3:56pm 93 3 7 44 72 73.8 83.2 29.51 83.2 382 2490 2035 0.90 0.00 0.00 0.000
3:57pm 91 8 9 44 71 73.8 83.2 29.51 83.2 382 2594 2035 0.89 0.00 0.00 0.000
3:58pm 114 4 9 45 71 73.8 83.1 29.51 83.1 382 2593 2028 0.77 0.00 0.00 0.000
3:59pm 99 3 9 45 72 73.6 83.0 29.51 83.0 382 2488 2022 0.66 0.00 0.00 0.000
4:00pm 185 2 9 44 72 73.6 82.9 29.51 82.9 383 2487 2017 0.55 0.00 0.00 0.000
4:01pm 94 1 6 45 72 73.6 82.8 29.51 82.8 383 2486 2011 0.44 0.00 0.00 0.000
4:02pm 94 4 6 44 72 73.6 82.7 29.51 82.7 384 2485 2006 0.34 0.00 0.00 0.000
4:03pm 94 2 6 44 73 73.6 82.6 29.51 82.6 383 2382 1999 0.23 0.00 0.00 0.000
4:04pm 94 0 6 44 72 73.6 82.6 29.51 82.6 383 2484 1999 0.23 0.00 0.00 0.000
4:05pm 94 1 6 44 72 73.6 82.5 29.51 82.5 383 2483 1992 0.12 0.00 0.00 0.000
4:06pm 94 1 3 45 73 73.6 82.5 29.51 82.5 383 2381 1992 0.12 0.00 0.00 0.000
4:07pm 94 1 5 44 73 73.6 82.4 29.51 82.4 382 2380 1985 0.02 0.00 0.00 0.000
4:08pm 94 1 5 45 74 73.5 82.4 29.51 82.4 382 2279 1985 0.02 0.00 0.00 0.000
4:09pm 94 0 5 44 74 73.5 82.3 29.51 82.3 382 2278 1979 -0.08 0.00 0.00 0.000
4:10pm 94 2 5 44 74 73.5 82.3 29.51 82.3 382 2278 1979 -0.08 0.00 0.00 0.000
4:11pm 94 0 2 44 75 73.5 82.3 29.51 82.3 382 2178 1979 -0.08 0.00 0.00 0.000
4:12pm 94 1 4 45 74 73.5 82.3 29.51 82.3 382 2278 1979 -0.07 0.00 0.00 0.000
4:13pm 94 1 4 44 75 73.5 82.2 29.51 82.2 383 2177 1974 -0.17 0.00 0.00 0.000
4:14pm 94 1 4 44 74 73.5 82.2 29.51 82.2 383 2277 1974 -0.17 0.00 0.00 0.000
4:15pm 94 0 4 44 74 73.5 82.2 29.51 82.2 383 2277 1974 -0.17 0.00 0.00 0.000
4:16pm 94 0 0 45 74 73.5 82.1 29.51 82.1 384 2276 1969 -0.26 0.00 0.00 0.000
4:17pm 94 0 0 44 74 73.5 82.2 29.51 82.2 384 2277 1976 -0.16 0.00 0.00 0.000
4:18pm 94 3 3 44 74 73.3 82.2 29.51 82.2 384 2277 1976 -0.16 0.00 0.00 0.000
|
Data provided from: Mark Hofmann's Bel Air, MD Weather Station |